GEFSMW_500_meanwind_024.txt.gz
Wind_Speed
27 28 28 29 28 27 25 25 25 27 29 31 33 35 35 34 33 33 34 35 37 39 40 41 40 39 39 39 39 40 41 42 43 44 44 46 48 51 53 56 59 61 63
28 28 28 28 28 28 27 26 27 29 31 32 33 33 33 32 33 34 36 38 40 41 42 41 41 41 41 42 42 43 44 45 48 50 51 52 53 56 59 62 64 66 68
28 28 28 29 29 28 28 28 28 30 32 32 32 32 32 33 35 36 38 40 41 41 41 42 42 42 43 44 45 46 48 50 52 56 59 62 64 65 65 67 68 70 71
28 27 28 28 29 28 28 28 29 30 31 31 31 32 33 35 37 39 40 41 41 41 41 42 42 43 44 45 47 50 53 55 58 61 65 69 73 75 74 72 73 74 75
28 27 27 28 28 28 28 29 30 30 31 32 33 34 36 38 39 40 40 40 40 41 41 41 42 43 45 48 51 55 58 62 65 68 71 72 74 76 79 78 79 79 80
28 27 27 27 27 28 28 29 30 31 32 34 35 37 38 39 39 40 40 40 40 40 41 42 43 46 49 53 56 60 64 67 70 72 74 76 78 80 81 82 83 83 83
27 28 27 27 27 28 29 30 31 33 34 36 37 38 39 39 40 40 40 40 40 41 42 44 47 51 55 58 61 65 68 70 73 75 77 78 80 83 85 87 88 88 87
27 27 27 27 28 29 30 31 33 34 35 37 37 38 38 39 39 39 40 40 41 43 45 49 53 56 60 63 66 68 71 73 75 77 79 80 82 85 87 90 93 94 94
26 26 27 28 29 30 31 32 34 35 36 36 37 37 38 38 38 39 40 41 44 47 50 54 57 60 63 66 69 72 74 76 77 79 81 83 85 87 90 93 97 101 104
25 26 27 28 29 30 32 33 34 34 35 36 37 37 37 38 38 40 42 44 48 51 55 58 61 65 68 71 73 74 76 77 79 81 83 85 88 91 95 98 101 105 108
26 27 28 28 29 31 32 32 33 34 35 36 37 37 37 38 40 42 45 49 52 55 59 62 66 69 72 74 75 75 76 78 80 83 87 90 94 97 100 103 104 105 105
27 28 28 29 30 32 32 33 33 34 35 36 37 37 38 40 43 46 49 53 56 60 63 67 70 73 74 74 74 75 77 80 84 88 92 96 99 102 103 104 103 101 99
27 28 29 30 31 32 33 33 34 35 36 37 37 39 41 43 46 50 53 56 60 64 68 71 72 73 72 73 74 77 81 85 90 94 98 101 103 103 102 99 96 94 92
27 28 30 31 32 33 33 34 34 35 37 38 39 41 44 47 49 53 56 61 65 68 70 71 71 71 72 74 78 82 86 91 95 99 102 103 102 99 96 92 89 87 86
28 29 30 32 33 34 34 35 36 37 38 40 41 44 46 49 53 57 61 65 68 69 69 69 69 71 75 79 84 88 93 97 100 102 102 100 95 90 87 85 83 83 82
29 30 32 33 34 35 36 36 37 38 40 42 44 46 49 53 56 61 64 67 68 67 66 68 71 75 80 85 90 95 98 101 103 102 98 92 86 82 79 79 79 79 80
30 32 33 34 35 35 36 37 38 40 42 44 46 49 52 56 60 64 66 66 65 65 67 70 75 80 85 90 95 99 102 103 102 97 90 83 78 77 76 76 76 75 74
32 33 33 34 34 35 36 38 39 41 43 45 48 52 56 60 63 64 64 63 63 66 70 75 80 85 90 95 99 102 103 100 94 87 81 77 75 75 77 76 74 71 65
32 32 33 33 34 36 37 39 40 42 44 47 51 55 59 62 62 62 61 63 66 70 75 80 85 89 94 99 102 104 101 93 85 79 76 76 76 76 76 74 69 61 55
30 31 32 33 35 36 38 39 41 43 47 50 54 58 60 61 60 60 62 65 70 75 80 84 89 94 98 101 103 101 95 87 81 76 74 74 74 72 69 65 58 51 45
29 31 33 34 35 36 38 40 43 46 50 54 57 58 58 58 59 62 65 70 74 79 84 88 93 97 101 102 99 93 87 82 79 76 74 71 68 64 58 52 47 43 40
30 31 32 33 35 37 39 42 45 49 53 55 56 56 57 58 61 64 69 74 79 84 88 92 96 99 100 98 91 84 80 79 78 75 70 64 59 53 47 43 40 37 34
29 30 32 34 36 38 41 44 48 51 54 54 54 55 57 60 64 69 74 79 83 88 92 96 98 99 96 90 84 79 77 76 74 68 62 56 49 43 39 36 33 30 28
29 31 33 35 38 41 44 47 50 51 52 52 53 55 59 63 68 73 78 83 87 92 96 98 99 96 90 84 80 78 75 71 65 58 52 46 41 36 33 30 28 26 26
31 33 35 37 40 43 46 48 49 50 50 52 54 58 62 66 71 77 82 86 91 95 98 98 97 93 85 80 79 77 71 64 57 51 44 38 33 29 27 24 23 23 22
33 34 36 39 42 45 46 47 47 49 50 53 57 61 66 71 75 80 84 89 93 95 97 95 91 85 81 79 75 69 61 55 50 43 37 31 28 24 20 19 19 19 19

GEFSMW_500_meanwind_030.txt.gz
Wind_Speed
32 30 30 29 28 28 27 26 25 24 24 23 24 24 25 26 28 30 30 31 31 33 34 36 38 39 41 42 42 43 44 44 43 43 43 44 45 47 49 52 55 57 60
33 30 29 29 29 28 27 26 26 25 25 25 25 26 27 28 30 31 31 32 34 35 37 39 40 41 42 42 42 42 43 44 44 45 45 46 48 51 54 57 60 63 65
33 30 30 29 29 28 27 26 26 26 27 27 27 28 29 31 31 32 33 34 36 38 40 42 42 42 42 42 43 43 43 45 48 50 52 54 55 56 57 60 63 65 67
33 30 30 30 29 28 27 27 27 28 28 28 29 30 31 32 32 33 35 37 39 41 42 42 42 42 43 43 44 45 46 49 51 55 59 62 65 67 66 64 64 65 66
33 30 30 30 29 28 27 27 27 28 29 29 30 31 32 33 34 35 37 39 41 42 43 42 42 43 44 45 46 48 51 54 57 60 63 66 69 72 74 73 71 68 67
33 30 31 30 28 28 28 27 27 28 29 30 31 32 33 34 35 37 39 41 42 43 43 43 44 44 46 47 49 52 55 58 62 65 67 69 70 71 73 75 75 74 73
32 30 30 30 29 28 27 27 27 28 29 30 31 32 34 35 37 39 40 41 42 43 44 44 45 46 48 50 53 56 59 62 65 67 69 70 71 72 74 75 76 77 78
31 30 31 30 29 28 27 27 27 28 29 30 31 33 35 37 39 40 41 42 43 44 44 45 46 48 50 53 56 59 62 65 67 68 69 70 71 73 76 79 83 84 84
30 30 30 29 27 27 27 27 27 28 29 31 32 34 36 38 39 40 42 43 44 44 45 47 49 51 53 56 59 62 65 67 68 68 69 70 73 76 80 85 90 94 96
29 29 27 26 26 26 26 26 27 28 29 31 33 34 36 38 40 41 42 43 44 45 47 49 51 54 56 59 63 65 66 67 68 69 71 74 78 82 87 92 97 102 107
27 26 25 24 24 24 25 25 27 28 30 31 33 34 36 39 40 41 43 44 45 47 49 51 54 56 60 62 64 66 67 68 69 72 75 79 84 88 93 98 103 108 113
25 24 23 23 23 23 23 25 26 28 30 31 33 35 37 39 40 42 43 45 47 49 51 54 57 60 62 64 66 66 68 70 72 76 81 86 90 95 100 104 109 113 116
23 22 21 20 21 22 23 24 26 28 30 32 33 36 37 39 41 42 44 46 49 51 54 57 59 62 64 65 66 67 70 73 77 82 87 92 97 101 106 110 113 114 113
21 20 19 19 20 21 22 24 26 28 30 32 34 36 38 40 42 44 46 48 51 53 56 59 62 63 64 65 67 69 73 78 83 89 94 99 103 108 111 113 113 110 104
19 19 19 19 19 21 22 25 27 29 31 33 35 37 39 41 43 45 48 50 53 56 59 61 63 64 65 67 70 73 78 83 89 94 99 104 108 112 113 112 107 100 93
18 18 18 18 19 21 24 26 28 30 32 34 36 38 40 42 45 47 49 52 55 58 60 62 63 65 66 70 74 79 84 90 95 99 104 108 110 111 108 102 95 88 82
17 17 18 19 21 23 25 28 29 31 33 35 37 39 42 44 46 48 51 54 57 59 61 62 64 66 69 74 79 84 89 95 100 104 107 109 108 104 97 89 81 74 67
17 18 19 21 23 25 27 28 30 31 33 36 38 41 43 45 48 51 53 56 58 59 61 63 65 69 74 79 84 89 94 99 103 106 108 106 99 91 85 78 69 60 54
19 20 21 22 24 25 26 28 30 32 35 37 40 42 44 47 50 53 55 57 58 59 62 65 69 74 79 84 90 94 98 102 104 104 102 96 88 80 73 66 57 49 43
19 20 21 22 24 25 26 29 31 34 36 38 41 43 46 49 51 53 55 56 58 60 64 68 73 79 84 89 95 99 102 103 102 98 90 83 76 68 61 53 46 39 33
19 20 21 22 24 25 28 30 32 35 37 39 42 45 48 50 52 53 55 56 59 62 67 72 77 83 89 94 99 102 103 102 97 88 79 70 63 56 49 43 37 31 27
18 19 20 22 24 27 29 31 33 36 39 41 44 46 49 50 51 53 55 58 61 65 70 75 81 87 92 97 100 101 99 95 87 77 68 59 51 44 39 34 28 25 23
17 19 21 24 26 28 30 32 35 38 40 43 45 47 49 50 51 53 56 60 65 69 74 80 85 90 94 98 100 97 91 83 75 66 57 48 41 36 31 26 23 21 20
18 20 22 24 27 29 32 34 37 39 41 44 45 47 48 50 52 56 60 64 69 74 79 84 89 93 96 98 96 89 80 71 63 53 45 38 34 30 25 22 21 19 20
18 21 24 26 29 31 33 36 38 40 42 44 45 47 48 51 54 59 63 68 73 79 84 88 92 95 96 93 88 79 69 61 53 43 36 31 27 24 23 22 20 21 21
20 23 26 28 30 32 34 36 39 41 43 44 45 47 49 53 57 61 67 73 78 83 88 92 94 95 92 85 76 67 60 52 43 35 29 25 21 20 19 19 20 20 20

GEFSMW_500_meanwind_036.txt.gz
Wind_Speed
39 40 40 39 38 37 34 33 32 31 29 28 28 28 29 29 29 28 28 29 30 31 31 32 32 33 34 36 38 40 41 41 41 42 42 44 44 45 46 47 49 51 53
41 41 40 38 38 37 36 34 33 32 30 29 28 29 29 30 29 29 30 31 31 32 33 33 34 35 37 39 40 42 42 43 43 43 43 44 45 47 48 51 53 55 57
44 42 40 38 38 38 37 35 34 33 31 29 28 29 30 30 30 31 31 32 33 34 35 36 37 38 40 41 42 43 45 46 46 46 47 47 47 47 48 52 56 58 60
47 44 41 38 37 38 37 36 35 34 32 30 29 29 30 30 31 32 33 34 35 36 37 38 39 41 42 43 44 45 47 47 48 49 50 52 54 54 53 54 57 59 61
48 45 42 38 38 38 38 37 35 34 32 30 29 29 30 30 31 32 34 35 36 38 39 40 41 43 44 45 46 47 48 49 50 51 53 55 58 60 61 60 60 61 62
48 46 43 40 39 38 38 37 35 34 32 30 29 29 29 30 32 33 35 36 38 39 40 42 43 44 45 46 48 49 50 51 53 55 57 59 61 63 65 65 65 65 64
49 47 44 41 39 38 37 37 35 34 32 31 30 29 29 30 32 34 35 37 38 39 41 42 44 45 46 47 49 50 52 53 56 58 61 63 65 67 69 69 69 68 68
48 47 44 41 39 38 38 37 35 34 32 31 30 30 30 31 33 34 36 37 38 40 41 43 44 46 47 49 50 52 54 56 59 61 63 66 68 70 71 72 73 73 72
47 45 44 42 40 39 38 37 35 34 32 31 30 30 30 32 33 34 35 37 39 40 42 44 46 47 49 50 52 54 56 59 61 64 66 68 70 71 72 75 77 80 80
45 43 42 42 40 39 39 37 35 34 33 31 30 30 31 32 33 34 36 38 39 41 43 45 47 49 51 53 54 56 59 61 64 66 68 70 71 72 75 78 81 86 90
41 40 41 41 40 39 38 37 35 33 32 31 31 31 31 32 33 34 36 38 40 42 44 47 49 51 53 55 57 59 61 64 67 69 70 71 72 75 78 82 87 92 98
39 38 39 39 39 38 37 35 33 33 32 31 31 31 31 32 33 34 36 39 41 43 46 48 50 52 54 56 59 61 64 66 68 69 70 72 75 78 83 88 93 99 105
37 38 38 38 38 37 35 33 32 32 31 31 30 30 31 32 33 35 38 40 42 45 47 49 51 53 56 58 61 63 66 68 69 70 72 75 79 83 88 94 99 105 109
36 36 36 35 34 34 33 32 31 31 30 29 29 30 30 32 34 37 39 42 44 46 48 51 53 55 58 61 63 66 68 69 70 72 76 79 84 89 95 100 105 108 109
33 33 32 31 31 31 30 29 28 28 28 28 28 29 31 33 35 38 41 43 45 47 50 52 55 57 60 63 66 67 68 69 72 75 80 84 90 96 101 105 107 106 101
30 29 28 28 28 28 27 26 26 26 26 27 28 29 32 34 37 39 41 44 46 49 51 54 57 60 63 65 66 67 69 71 75 79 84 90 95 100 104 105 102 95 87
26 25 25 26 26 25 25 24 24 24 25 26 28 31 33 36 38 40 42 45 48 51 53 56 59 62 64 65 66 68 71 75 79 84 90 95 100 103 103 98 89 79 70
24 24 24 23 23 22 22 22 22 23 25 27 30 32 34 36 38 41 44 46 49 52 55 58 61 62 64 65 67 70 74 79 84 90 95 99 101 100 96 86 75 64 56
21 21 20 20 19 19 20 21 22 24 27 29 30 32 35 37 40 42 45 48 51 54 57 59 61 62 63 66 69 73 78 83 88 94 98 100 98 93 84 73 61 51 45
17 17 17 17 18 19 20 21 23 25 27 29 31 33 36 38 41 43 46 50 53 55 58 59 60 62 65 68 73 78 82 88 92 96 98 96 89 79 69 59 49 41 37
15 16 17 18 18 19 20 22 23 25 27 30 32 34 37 39 42 45 48 51 54 56 57 58 61 64 68 72 78 83 88 92 95 95 92 85 75 66 57 48 40 36 33
15 15 17 18 18 19 20 22 24 26 28 30 33 35 38 41 44 47 50 52 54 55 56 59 62 67 72 77 82 87 92 95 94 90 82 72 63 54 46 39 34 32 30
14 15 16 17 18 19 20 22 24 26 29 31 34 37 40 43 45 48 50 52 53 55 57 61 65 70 75 81 86 90 93 93 88 79 69 60 51 43 37 33 31 29 28
14 15 15 16 17 19 21 23 25 27 30 33 36 38 41 44 47 48 50 52 54 56 60 64 68 73 79 84 88 91 90 85 77 66 57 48 41 36 32 30 29 29 28
13 14 14 16 18 19 22 24 27 30 32 35 37 40 43 45 47 48 50 52 55 59 64 68 73 78 83 88 91 90 84 75 65 54 45 38 33 30 30 30 29 29 29
12 13 15 17 19 21 24 26 29 31 34 36 39 41 43 45 47 48 51 55 59 63 68 73 78 83 88 90 89 82 72 62 53 44 37 31 28 27 27 27 29 30 30

GEFSMW_500_meanwind_042.txt.gz
Wind_Speed
46 45 44 43 43 43 43 42 43 42 42 41 39 37 37 37 37 37 37 36 35 35 34 34 34 34 34 35 35 36 37 37 38 40 42 43 44 45 47 48 49 50 51
50 49 48 46 45 44 44 43 43 43 43 42 41 39 38 38 37 37 37 36 35 35 36 36 36 36 36 37 38 39 39 39 40 42 44 46 47 48 50 51 52 53 54
51 51 50 49 46 46 45 44 43 43 44 43 42 40 38 38 37 37 37 36 36 37 37 37 37 38 38 39 40 41 42 42 43 45 46 48 49 50 50 53 55 56 57
52 52 52 50 48 47 46 45 44 44 44 43 42 41 39 38 37 37 37 37 37 37 37 38 38 39 40 41 42 43 44 45 46 47 49 50 52 53 52 52 54 57 59
54 53 53 52 50 49 47 46 45 44 44 43 42 41 39 37 37 37 37 37 38 38 38 39 40 41 42 43 44 44 45 47 48 50 51 52 54 56 57 56 56 58 60
56 54 54 53 52 51 50 48 45 43 43 43 42 40 38 37 37 37 37 37 38 38 39 40 41 42 43 44 44 45 46 48 50 52 53 55 57 58 60 61 61 62 63
58 57 55 54 53 52 50 48 45 43 42 42 41 40 39 38 37 37 37 38 38 39 40 41 42 42 43 44 45 46 48 50 52 54 56 58 59 61 63 65 66 66 67
55 57 56 54 54 52 50 48 45 43 42 41 40 39 38 37 37 37 37 38 39 39 40 41 42 43 43 44 45 47 49 52 54 56 58 60 62 64 66 68 69 70 70
53 56 56 54 54 52 50 48 45 44 43 41 40 39 38 37 37 38 38 38 39 39 40 41 42 43 43 44 46 49 51 54 56 58 60 62 64 66 68 69 71 73 74
50 53 55 54 53 51 50 48 46 45 44 42 41 39 38 37 37 38 38 38 38 39 40 41 41 42 43 45 48 51 53 56 58 60 62 64 66 68 70 72 73 74 75
46 50 54 53 51 50 49 48 46 45 44 42 40 39 37 37 37 37 38 38 38 39 40 41 41 42 44 47 50 53 56 58 60 62 64 66 68 70 72 73 74 75 77
43 48 51 51 50 48 47 46 45 45 43 42 40 38 37 37 37 38 38 38 39 39 40 40 42 44 46 49 53 55 57 59 62 64 66 68 70 71 72 74 75 78 81
40 45 49 48 47 45 45 44 44 43 42 41 39 37 37 37 37 38 38 39 39 39 40 41 43 46 49 52 54 57 59 61 63 65 67 69 71 72 73 75 78 81 85
36 42 45 45 44 43 43 43 42 42 40 39 37 37 36 37 37 38 38 39 39 39 40 42 45 48 51 53 56 58 60 63 65 67 69 70 71 73 75 78 82 87 91
35 39 41 41 40 40 40 41 40 39 38 36 36 35 36 36 37 37 38 38 38 39 41 44 47 50 53 55 57 59 62 64 66 68 69 71 73 75 79 84 88 93 96
33 36 37 37 37 37 37 37 37 36 35 34 34 34 34 35 36 36 36 37 38 41 43 46 49 52 54 56 59 61 63 65 67 68 70 72 75 79 84 89 93 96 97
29 32 33 33 33 32 32 33 33 32 32 32 32 32 33 33 34 34 35 37 40 42 45 48 50 53 55 58 60 62 64 66 67 69 72 75 79 84 89 92 95 95 92
26 28 29 29 29 29 29 29 29 29 29 29 29 30 30 31 32 34 36 38 41 44 46 49 52 54 57 59 61 63 64 66 68 72 75 80 85 90 93 93 92 87 80
22 23 23 24 24 24 24 24 24 25 25 25 26 27 28 30 32 34 37 39 42 45 47 50 53 55 58 60 62 63 65 67 70 75 80 85 90 92 93 90 84 75 64
18 18 18 19 19 20 20 21 21 21 22 23 24 25 27 29 32 35 37 40 43 46 49 51 54 56 58 60 62 64 66 69 74 79 85 90 92 92 88 81 70 59 50
15 16 16 16 16 16 16 17 18 19 20 21 23 25 27 30 33 36 38 41 44 47 50 52 55 57 58 60 63 66 70 74 79 84 89 91 90 84 76 66 55 47 40
12 13 13 13 13 14 14 15 16 17 19 20 23 25 28 31 34 37 40 42 45 48 50 53 55 57 59 61 65 70 75 80 84 88 90 87 80 71 61 52 44 39 35
10 10 10 10 11 11 12 13 15 16 18 21 23 26 29 32 35 38 41 44 46 49 50 52 54 57 60 64 68 74 79 84 87 88 84 76 66 56 48 42 37 34 34
7 8 8 9 9 10 11 12 14 16 19 22 25 28 31 34 37 40 42 45 47 49 51 52 55 58 63 68 72 77 82 85 85 80 71 61 52 45 39 35 33 33 33
6 6 7 7 8 9 11 13 16 18 21 24 27 30 33 35 38 41 43 45 47 49 51 54 57 62 66 72 77 81 84 84 78 68 57 48 41 36 33 32 32 32 33
5 6 7 7 9 10 13 15 18 20 23 26 29 31 34 37 39 41 44 46 48 50 53 57 62 67 72 76 80 83 82 76 65 53 43 37 33 31 30 30 31 32 32

GEFSMW_500_meanwind_048.txt.gz
Wind_Speed
38 38 39 39 39 40 41 42 42 41 42 43 42 40 40 40 39 38 37 37 37 38 38 38 39 39 39 39 39 39 39 40 40 41 41 42 42 43 44 45 46 46 46
42 42 42 43 43 43 44 44 45 44 44 45 44 43 42 41 39 39 38 38 38 39 39 40 40 40 40 39 40 40 41 41 42 42 43 44 44 45 46 48 49 49 49
46 46 46 47 47 47 47 47 47 48 47 47 47 46 44 42 40 40 39 39 39 39 40 40 40 41 40 40 41 41 42 42 43 44 45 46 47 47 48 49 50 50 51
50 50 51 51 51 50 51 50 50 50 51 50 49 47 46 44 42 41 40 40 39 39 39 40 41 41 41 41 41 42 41 42 43 44 45 47 49 50 50 50 51 51 52
53 54 55 55 55 54 54 53 53 52 53 53 50 48 48 46 44 43 41 40 40 40 40 40 41 41 41 42 42 41 42 43 44 45 46 48 50 51 52 51 51 53 54
54 54 55 56 56 57 57 56 55 54 53 53 51 50 49 48 46 44 42 41 41 40 40 40 40 41 41 41 42 42 43 44 46 46 48 50 51 52 53 53 53 53 55
54 54 54 54 55 56 57 57 56 55 54 52 51 51 50 49 47 46 44 42 41 40 40 40 40 40 40 41 41 42 44 46 47 48 49 51 52 53 54 56 57 57 57
52 52 52 53 54 55 56 57 56 55 54 52 51 51 50 49 48 46 44 43 42 41 40 40 39 39 39 40 41 43 45 47 48 49 50 51 53 54 56 58 60 61 61
52 52 52 52 51 52 54 55 55 54 53 52 51 50 49 49 48 46 44 43 42 41 40 39 39 39 40 41 42 44 46 48 49 50 51 52 54 56 58 60 63 65 66
52 52 51 51 50 50 51 53 53 53 52 52 51 49 48 48 47 45 44 43 41 40 39 39 39 39 40 42 43 45 47 48 49 51 52 54 56 58 60 62 65 67 70
51 50 50 49 48 48 49 50 51 51 51 50 49 48 47 46 45 44 43 42 40 39 39 39 39 40 41 43 45 46 48 49 50 52 54 56 58 60 62 65 67 69 71
48 47 46 45 44 44 44 45 47 49 49 48 46 46 45 44 43 43 42 41 40 39 38 39 39 41 42 44 46 47 48 50 52 54 56 58 60 63 65 67 69 71 72
44 42 39 39 38 39 40 41 43 45 45 44 43 43 43 42 41 41 40 39 39 38 38 39 41 42 43 45 47 48 50 51 54 56 58 60 63 65 67 69 70 72 73
37 34 32 32 31 33 35 36 39 41 40 40 40 40 40 40 39 39 38 38 37 38 38 40 42 43 44 46 48 49 51 53 56 58 60 63 65 67 68 70 71 73 74
27 23 21 22 24 27 29 32 35 36 37 37 37 37 37 36 36 36 36 36 36 37 38 40 42 44 46 47 49 50 53 55 57 60 62 64 66 68 69 71 72 74 78
14 10 10 13 18 21 25 29 32 33 34 34 33 33 33 33 33 33 33 34 35 37 39 41 43 45 46 48 49 52 54 57 59 61 63 65 67 68 69 72 75 79 84
5 1 5 11 15 20 24 26 28 29 29 29 28 29 29 29 30 30 31 33 35 37 39 41 43 44 46 48 50 53 56 58 60 62 64 65 67 69 71 74 79 84 90
8 8 10 13 16 19 22 23 24 24 24 24 24 24 24 25 27 28 30 32 35 37 40 41 43 44 47 49 52 55 57 59 61 63 64 66 69 72 75 79 84 89 92
13 15 16 17 18 19 20 20 20 19 18 18 18 19 20 22 25 27 30 33 35 37 39 41 43 45 48 51 53 55 57 59 61 63 66 69 72 76 81 85 88 89 87
18 17 18 18 18 18 17 16 16 15 14 15 16 18 20 22 25 27 30 32 35 36 39 41 44 46 49 52 54 56 58 59 61 64 68 73 77 81 85 87 87 82 74
16 16 16 15 15 15 14 13 12 12 12 13 15 17 20 23 25 27 30 32 34 37 39 42 45 48 50 52 55 57 59 61 63 67 72 76 81 83 85 84 79 70 60
12 13 13 12 12 12 11 11 11 11 12 14 17 19 21 23 25 27 29 32 34 37 40 43 46 48 51 53 55 57 60 64 67 71 75 79 81 82 80 75 66 56 49
7 8 9 8 8 9 9 9 10 12 13 14 16 18 19 21 24 27 29 33 36 39 41 44 46 49 51 54 56 59 63 67 71 74 77 79 80 77 71 62 53 46 42
5 5 6 6 5 5 6 7 7 8 9 11 14 16 19 22 25 28 31 34 37 40 42 44 47 49 52 55 59 62 66 69 72 75 77 78 74 67 57 48 43 39 37
3 3 2 2 2 2 3 4 6 7 10 12 15 18 21 24 27 30 33 36 38 40 43 45 48 51 54 57 61 64 67 70 73 75 75 70 62 52 44 39 36 34 34
1 1 0 1 1 2 3 5 7 10 12 15 18 20 23 26 29 32 34 37 39 41 44 47 50 53 56 60 64 68 71 73 74 72 67 58 48 39 34 32 32 32 34

GEFSMW_500_meanwind_054.txt.gz
Wind_Speed
35 36 36 35 36 36 36 36 35 35 35 35 36 36 36 37 37 37 37 37 36 36 36 35 35 34 34 34 35 35 35 36 36 36 37 37 38 39 40 40 42 43 43
37 37 38 38 38 38 39 39 39 39 39 39 39 40 40 40 41 40 39 39 38 38 38 37 36 35 35 35 35 36 36 36 36 36 37 38 38 39 41 42 43 43 44
39 40 40 41 41 41 42 43 43 43 43 43 43 43 44 43 42 42 41 41 41 41 41 39 37 37 36 36 36 36 36 36 36 37 38 39 39 40 40 42 43 43 44
40 41 42 43 44 45 46 46 47 47 47 48 47 47 46 45 45 44 44 45 44 44 43 41 39 38 37 37 37 37 37 37 37 38 39 40 40 40 40 41 42 43 45
41 42 43 45 47 48 49 50 51 52 52 52 51 51 50 49 48 48 48 47 47 46 44 43 41 40 39 38 38 37 38 38 38 39 40 40 41 41 42 42 44 45 46
42 45 47 49 50 52 53 54 55 55 56 56 56 55 54 52 51 50 50 49 49 48 46 45 44 43 41 40 39 38 38 39 40 40 41 42 42 43 43 44 44 46 47
45 47 49 51 52 54 55 56 57 57 57 58 58 58 56 55 53 52 51 51 50 49 48 47 46 45 43 41 40 39 39 40 41 42 42 43 43 44 45 46 47 48 48
46 48 49 51 53 54 56 57 57 58 58 58 58 58 58 56 54 54 53 52 51 50 49 48 47 46 44 42 41 40 41 42 43 43 43 44 45 46 47 49 51 51 51
44 46 49 51 53 55 56 57 58 58 58 58 57 57 57 56 54 53 53 53 52 51 50 48 47 46 45 43 42 41 42 43 43 44 45 46 47 49 51 52 54 55 56
44 47 50 52 54 56 56 57 57 57 57 57 57 56 55 55 54 52 52 52 51 50 49 48 48 47 45 43 43 42 43 43 44 45 46 47 49 52 54 56 57 59 60
44 47 50 52 54 54 55 55 55 55 54 55 55 55 54 53 52 52 51 50 50 49 48 47 47 46 44 43 42 42 43 44 46 46 48 49 52 54 56 58 60 62 64
43 46 48 50 51 51 51 51 51 51 51 51 52 53 52 52 51 50 49 49 48 47 46 45 45 43 42 42 41 42 43 45 46 47 49 52 54 57 59 61 63 65 67
40 43 44 45 46 46 45 44 44 45 47 47 48 49 49 49 48 46 46 47 45 44 43 43 42 41 40 40 41 42 44 45 48 49 52 55 57 60 62 64 65 67 68
37 39 38 38 38 36 34 33 34 36 38 40 41 44 45 45 44 43 42 42 41 40 39 39 38 37 37 38 41 42 44 47 49 52 56 58 60 62 64 65 67 68 70
33 33 32 31 29 26 23 23 24 27 30 33 35 38 39 40 39 38 37 37 36 35 35 35 35 34 36 38 41 44 46 48 51 55 59 61 62 64 66 67 69 70 72
28 27 25 23 21 17 14 14 16 19 23 26 29 32 34 34 35 34 33 32 31 30 30 30 30 32 35 38 41 44 48 51 55 58 60 62 64 66 67 69 71 72 74
24 22 19 16 12 8 4 5 9 14 17 20 23 26 27 28 29 29 27 26 25 26 27 28 29 33 37 40 44 47 50 53 56 59 61 63 65 67 68 70 71 74 76
19 18 16 12 8 5 3 6 9 13 16 19 20 22 24 25 25 24 24 23 23 25 27 29 31 35 39 42 46 49 52 55 58 60 62 64 66 68 69 70 72 75 77
15 14 12 10 8 7 7 9 11 14 16 19 20 21 22 22 21 20 20 21 22 23 26 29 33 36 40 44 47 50 53 55 58 60 63 65 66 68 69 71 74 76 79
12 12 11 10 10 10 10 11 13 14 15 17 17 18 18 18 17 17 19 20 22 24 27 31 35 38 41 45 48 50 53 56 58 61 62 65 67 69 72 74 76 78 79
9 10 9 10 11 11 12 13 13 13 13 14 14 15 14 13 13 14 17 20 23 26 29 33 36 39 42 45 49 51 54 56 57 60 62 65 68 72 75 77 77 77 76
7 6 7 8 8 8 9 10 10 11 11 11 11 10 11 12 14 16 18 21 24 27 30 34 37 40 43 46 49 52 54 56 58 61 64 68 71 74 76 76 76 73 68
6 5 5 6 6 7 6 6 6 6 6 7 7 8 9 11 13 16 18 21 25 28 31 34 38 41 44 47 49 52 54 57 60 63 67 71 73 74 74 73 68 61 54
5 4 3 4 4 4 4 3 2 3 2 3 4 6 9 11 14 17 20 23 26 29 33 36 39 42 44 46 49 53 56 59 63 67 70 72 72 72 68 62 54 47 41
5 4 3 3 3 3 2 2 1 1 3 4 7 9 11 14 17 20 23 25 29 31 34 37 39 41 44 47 51 54 58 62 66 68 70 70 67 62 55 47 40 36 35
5 5 4 4 4 3 3 3 4 5 6 8 11 13 15 18 20 23 25 28 30 32 34 37 40 42 46 49 53 57 61 65 66 66 66 62 56 48 42 36 33 32 33

GEFSMW_500_meanwind_060.txt.gz
Wind_Speed
41 41 41 41 40 40 40 39 39 39 39 39 38 38 37 37 38 38 38 38 37 36 36 37 38 38 38 38 38 37 37 37 37 37 37 37 37 37 37 37 37 36 36
42 42 42 42 41 41 41 41 41 40 41 41 40 40 40 40 41 41 41 40 39 39 40 40 41 41 41 41 40 40 40 40 39 39 39 38 37 37 37 37 37 37 38
41 42 42 42 42 42 42 42 42 43 43 43 43 43 43 43 43 43 42 42 43 43 43 44 44 44 44 43 43 42 42 42 41 41 40 40 39 38 38 38 38 38 38
40 40 41 41 42 42 43 44 44 45 46 46 47 47 46 46 45 45 46 46 47 47 47 47 47 47 47 46 46 45 45 44 43 43 42 41 41 40 39 39 40 39 39
38 39 40 41 42 43 43 44 45 47 48 49 50 50 50 50 49 49 49 50 50 50 50 49 49 49 49 48 48 47 47 47 46 45 44 44 43 42 42 42 41 41 41
36 37 38 39 41 42 44 45 46 48 49 51 52 53 54 54 54 54 54 53 53 53 52 52 52 52 51 51 50 50 49 48 47 47 47 45 45 44 44 44 43 43 43
34 35 36 38 40 42 44 46 48 50 52 54 55 57 58 58 59 58 58 58 57 56 55 54 54 54 54 53 53 52 51 50 50 49 48 47 46 46 45 46 45 45 45
33 34 36 38 40 43 45 48 50 52 55 57 58 60 61 62 62 62 62 61 60 59 58 57 56 56 55 55 54 54 53 52 52 51 51 49 48 47 47 47 47 47 48
32 34 36 39 41 44 46 49 51 54 56 58 60 62 63 64 65 65 65 64 63 61 61 60 59 57 57 56 55 55 54 54 53 52 52 51 49 49 49 49 49 49 50
32 34 37 39 41 44 46 49 52 55 57 60 62 64 65 67 67 67 67 66 64 63 62 61 59 58 57 57 57 56 55 54 53 53 52 51 50 50 50 50 51 52 54
31 34 36 38 41 44 46 49 52 55 57 59 62 64 65 67 68 68 67 66 64 63 61 59 58 57 56 56 56 55 55 53 52 52 51 51 50 52 52 53 54 56 57
30 33 35 37 40 42 45 48 50 53 55 57 59 61 62 63 64 65 65 64 62 61 59 57 55 54 54 53 53 53 53 52 51 50 50 50 51 52 53 54 55 58 59
29 31 33 34 36 39 42 45 47 49 51 52 53 54 54 56 57 58 58 59 58 56 55 54 52 51 50 50 50 50 49 49 48 48 48 49 51 52 54 56 58 60 62
26 28 30 31 33 35 37 39 41 42 44 45 45 44 44 45 47 48 50 51 51 50 50 48 47 46 46 45 45 45 45 45 45 46 47 49 51 53 55 57 59 61 63
24 25 26 27 29 31 33 34 36 36 36 36 34 33 33 33 35 36 38 40 41 42 42 42 42 41 40 40 40 40 42 42 43 44 46 50 52 55 57 59 61 63 66
21 22 23 24 25 27 29 30 30 30 28 26 23 22 21 22 23 26 28 30 31 32 34 34 34 34 34 35 36 37 38 39 41 43 46 50 53 55 58 60 63 66 68
17 18 19 19 21 23 24 25 25 24 22 20 17 14 11 12 14 17 19 21 23 25 26 27 27 29 31 32 33 35 37 38 41 44 47 51 54 56 58 61 64 66 68
14 14 15 16 18 20 20 20 20 19 17 15 11 8 5 6 8 11 14 17 18 19 20 22 24 26 27 28 30 33 35 39 42 44 48 50 53 57 59 61 63 65 68
13 13 13 15 17 17 17 17 17 17 14 11 9 6 2 2 5 7 10 12 14 16 18 19 21 23 25 27 30 33 36 39 43 46 48 51 54 56 59 61 62 65 69
12 12 12 13 15 15 15 14 14 14 13 11 8 6 3 1 3 5 7 9 11 13 15 17 21 23 25 27 30 33 37 40 43 46 49 51 54 56 58 61 63 67 69
11 11 11 11 12 13 13 12 12 11 10 9 8 7 5 3 1 2 5 7 9 12 14 17 19 22 25 29 32 35 38 40 43 46 49 51 54 56 59 62 65 67 68
10 10 10 11 10 10 10 10 10 9 8 7 7 6 5 4 2 2 4 6 8 11 14 17 20 23 26 30 33 36 38 40 42 46 49 52 54 58 61 64 65 64 62
10 10 10 10 9 9 9 8 8 8 7 7 7 6 6 5 4 5 6 8 11 14 17 20 22 25 28 31 34 36 38 41 44 47 50 53 57 60 62 62 61 59 56
10 10 9 9 8 8 8 8 8 7 6 7 7 7 7 7 8 9 10 12 15 17 19 22 24 27 29 32 34 37 40 43 47 49 52 56 59 61 60 57 55 52 50
10 9 9 8 8 8 8 8 7 7 7 8 8 9 10 11 12 13 15 17 18 20 22 24 26 28 31 33 36 39 42 46 49 51 55 58 58 57 54 52 50 48 45
10 9 9 9 8 8 8 8 7 8 9 10 11 12 13 14 16 17 18 20 21 23 24 26 28 30 33 36 39 42 45 48 50 53 56 56 54 52 49 48 46 44 42

GEFSMW_500_meanwind_066.txt.gz
Wind_Speed
42 40 39 38 37 37 37 38 39 39 40 41 42 43 43 43 43 43 42 42 41 41 40 40 40 39 39 39 39 39 38 38 38 38 38 37 37 37 37 37 37 37 37
42 41 40 39 38 38 38 39 39 40 41 42 44 44 45 45 45 45 44 44 43 43 43 43 43 43 43 43 43 42 42 42 42 42 41 40 40 39 39 39 39 39 39
42 42 41 40 39 39 39 39 40 41 42 43 44 45 46 45 45 45 45 45 46 46 46 46 46 46 46 46 46 46 45 45 45 45 45 43 42 42 42 41 42 42 42
42 41 41 40 40 40 40 40 40 41 42 43 44 45 45 46 46 47 47 48 49 49 49 48 49 49 49 49 49 49 49 49 48 48 48 47 46 45 44 44 45 45 45
41 41 40 40 40 40 40 39 40 41 42 43 44 45 45 46 46 48 49 50 50 51 51 51 52 52 52 52 53 52 52 52 52 51 50 50 49 48 47 47 47 48 48
39 39 39 39 39 39 39 39 39 40 41 42 43 44 45 46 47 48 49 51 52 53 54 54 55 55 56 55 56 56 55 55 54 53 52 52 52 51 51 50 50 51 51
37 37 37 37 37 38 38 38 39 39 40 41 42 43 45 46 48 50 51 53 54 55 57 58 58 59 59 59 58 58 57 57 56 55 54 55 54 54 54 53 53 53 53
35 35 35 35 35 36 36 36 37 38 39 41 42 44 46 48 50 52 53 55 57 58 60 61 61 61 62 62 61 60 59 58 58 57 56 56 56 56 56 55 55 55 56
32 33 33 33 33 34 34 35 36 38 39 41 43 45 47 49 51 54 56 58 60 61 62 63 64 64 64 63 63 62 61 60 59 59 58 57 58 57 57 56 56 57 58
31 31 31 31 32 32 33 34 36 37 39 42 43 45 48 50 53 55 58 60 62 63 65 66 66 65 65 64 63 62 61 60 60 59 59 59 58 58 58 58 58 58 59
29 29 29 29 30 31 32 34 35 37 39 41 43 45 47 50 53 56 58 60 63 64 65 66 66 65 64 62 61 60 59 58 58 58 57 57 56 57 58 59 58 58 58
27 27 28 29 29 30 32 33 35 36 37 38 40 42 44 47 50 53 55 57 59 61 62 62 62 62 60 58 57 55 55 55 54 54 54 55 55 55 56 56 57 58 58
26 26 27 28 29 30 31 31 32 33 34 35 36 38 40 42 44 46 48 50 51 53 54 55 55 55 54 52 52 51 50 50 50 50 51 51 52 53 53 54 55 56 57
25 25 26 27 27 28 28 28 29 29 30 32 33 35 36 38 39 40 40 42 43 44 44 44 44 45 45 44 44 44 44 44 44 45 46 48 49 49 50 51 52 53 55
23 24 24 24 25 25 25 25 26 26 27 28 30 32 33 33 33 33 33 34 34 34 32 33 33 35 36 36 36 36 36 37 39 41 42 43 44 45 46 47 49 51 53
21 21 22 22 22 21 22 23 23 23 24 25 26 27 28 28 28 28 27 26 25 24 23 23 23 25 26 28 29 30 31 32 34 36 37 38 39 41 43 46 47 48 51
19 19 19 19 19 19 20 20 21 21 21 22 23 23 24 24 24 23 22 21 19 17 17 16 16 18 19 21 22 24 25 27 29 31 33 35 37 40 42 44 47 49 51
17 17 17 16 17 17 17 18 18 18 19 19 20 20 20 20 19 19 17 15 13 12 11 11 13 13 13 15 17 20 22 24 26 28 31 33 36 38 41 44 47 49 51
16 15 15 16 16 16 16 16 16 16 16 16 17 17 16 16 16 15 13 12 11 9 8 8 9 10 12 14 15 17 20 23 26 29 31 34 36 39 42 44 47 49 51
15 15 15 15 15 15 15 15 14 14 14 14 14 14 13 13 13 12 11 11 10 9 8 8 8 9 11 12 15 18 21 24 26 29 31 34 37 39 42 44 47 50 52
14 14 14 15 15 14 15 14 14 13 13 13 12 12 12 12 12 12 11 10 10 9 9 9 10 11 13 15 17 19 22 24 27 30 33 35 38 41 43 46 48 51 53
14 14 14 14 14 14 14 15 14 13 13 13 12 12 11 11 11 11 11 11 11 11 11 12 13 15 16 18 20 22 24 27 29 32 34 37 40 42 45 47 50 52 54
14 14 14 13 13 14 14 14 14 13 13 12 12 11 11 11 12 12 12 12 13 13 14 15 16 18 19 20 22 24 26 29 31 34 37 39 42 45 47 49 51 53 54
14 14 14 14 14 13 13 13 13 12 12 11 11 11 11 12 13 13 14 14 15 16 16 17 18 20 21 23 25 27 29 32 34 37 39 42 44 47 49 51 52 53 52
15 15 15 15 14 14 13 13 12 12 12 12 12 12 13 13 14 15 15 16 17 18 19 20 21 22 24 25 27 29 32 35 37 40 42 45 47 49 51 52 52 52 52
16 15 15 15 14 14 13 13 13 13 13 13 13 14 14 15 16 17 17 18 19 20 21 22 24 25 27 28 30 32 35 37 40 42 44 47 49 50 51 51 51 51 49

GEFSMW_500_meanwind_072.txt.gz
Wind_Speed
43 42 41 40 38 38 37 37 37 36 36 36 36 35 35 36 37 37 38 38 39 39 39 40 40 41 41 41 41 41 42 42 43 43 42 42 41 40 39 39 39 39 38
44 43 41 40 39 38 38 38 38 38 37 37 37 37 37 37 38 39 39 40 41 42 42 42 42 43 43 44 44 44 45 45 46 47 47 46 45 44 43 43 43 42 42
44 43 42 41 40 39 38 38 38 39 38 38 38 39 39 39 39 40 41 42 43 44 44 44 45 45 46 46 46 47 48 48 49 50 50 50 48 48 47 46 46 46 45
45 43 42 41 41 40 39 39 38 39 39 39 39 40 40 40 41 42 42 43 44 44 45 46 46 47 48 48 49 50 51 52 52 53 53 53 53 52 50 50 49 49 48
45 43 42 41 40 40 39 39 39 39 39 40 40 40 41 41 41 42 43 43 44 45 46 46 47 48 49 50 52 53 54 54 55 56 55 56 56 56 55 54 53 52 51
43 43 42 41 40 39 39 39 39 39 39 40 40 40 41 41 42 42 43 43 44 45 46 47 48 49 51 52 54 55 56 57 58 58 58 58 59 58 58 58 56 55 54
42 42 41 40 39 39 38 38 38 39 39 39 40 40 41 41 41 42 43 43 44 45 46 48 49 50 51 53 55 57 59 60 60 61 61 61 61 60 60 60 59 58 56
40 40 40 39 39 38 38 38 38 38 38 39 39 39 40 40 41 41 42 43 43 44 46 47 49 50 52 54 57 58 60 61 62 62 62 62 62 61 61 60 60 59 58
38 38 38 38 38 38 37 37 37 37 37 37 38 38 38 39 40 41 41 42 43 44 45 47 48 50 52 54 57 59 60 61 62 63 63 63 63 62 61 60 60 59 59
37 37 37 37 37 37 37 36 36 37 37 37 37 37 38 38 39 40 40 41 42 43 44 45 47 50 52 54 55 56 58 60 61 62 62 62 62 61 60 58 57 58 59
36 36 37 36 36 36 36 36 36 36 36 36 36 36 37 37 38 38 38 39 39 40 42 44 46 48 50 51 52 53 54 56 58 58 58 58 58 57 57 57 56 56 55
35 35 36 36 35 35 35 35 35 35 35 35 35 35 35 35 35 35 36 36 38 39 41 42 44 46 46 47 49 49 49 50 50 50 50 51 51 52 52 53 53 54 54
33 34 34 34 34 34 34 34 34 34 34 34 34 33 33 33 33 33 33 35 36 37 38 40 41 42 42 43 44 44 44 44 43 43 43 43 44 45 46 47 48 50 51
31 32 32 32 32 32 32 32 32 32 32 32 31 31 30 30 30 31 32 32 33 34 35 36 37 38 38 38 39 38 37 37 37 37 37 36 38 39 40 42 43 44 45
28 29 29 30 30 30 30 30 30 29 29 29 28 28 28 28 28 29 29 30 31 32 33 34 34 34 34 34 33 33 33 32 31 30 30 30 32 34 35 37 38 39 41
25 26 27 27 27 27 27 27 27 27 26 26 26 26 27 27 27 27 28 29 29 30 31 31 31 31 31 31 30 29 28 27 26 25 26 26 27 28 29 31 34 36 38
23 24 24 25 25 25 25 25 25 24 24 24 25 25 25 25 26 26 27 27 28 29 28 28 28 28 28 27 26 25 25 23 23 22 22 22 24 25 26 28 30 34 37
22 22 23 23 23 23 23 23 23 22 23 23 24 24 24 24 25 25 26 26 26 26 26 26 26 25 24 24 24 23 22 22 22 22 22 23 24 26 28 29 31 33 36
21 21 21 21 21 21 21 21 21 21 22 22 23 23 23 23 23 24 24 24 24 24 24 24 23 23 23 23 23 23 22 22 22 22 22 23 25 26 27 29 32 34 37
19 20 20 20 20 20 20 20 20 20 21 21 21 22 22 22 23 22 23 23 23 23 23 23 23 23 22 23 23 23 22 22 23 23 23 24 26 27 30 32 34 37 39
19 19 19 19 19 19 19 19 20 20 20 20 20 21 21 22 22 22 22 22 22 22 22 22 22 22 23 23 23 23 23 23 24 25 26 28 29 31 33 35 37 39 42
18 18 18 18 18 18 19 19 19 19 19 19 20 21 21 21 21 21 22 22 22 22 22 22 22 22 23 23 23 24 25 25 26 27 28 30 32 34 36 38 40 42 44
18 17 17 17 17 17 18 18 18 18 19 19 19 20 20 20 20 20 20 21 21 21 22 22 23 23 24 24 24 25 26 27 28 29 30 32 34 36 38 41 43 44 46
18 17 17 17 17 17 17 18 18 18 18 18 18 19 19 19 19 20 20 21 21 22 23 23 24 25 25 25 26 27 28 29 30 31 33 35 37 39 41 43 45 46 48
19 18 18 18 18 18 18 18 18 19 19 18 18 19 19 20 20 21 21 22 22 23 24 24 25 26 26 27 28 29 30 31 32 34 36 37 39 41 43 45 47 48 49
20 20 19 19 19 19 19 19 19 19 19 19 19 20 20 21 21 22 22 23 24 24 25 25 26 27 28 29 30 31 32 33 34 36 38 40 41 43 45 47 48 49 50

GEFSMW_500_meanwind_078.txt.gz
Wind_Speed
46 46 46 46 45 43 42 41 40 39 39 38 37 36 35 35 35 34 34 34 34 34 34 34 34 35 35 36 37 37 38 39 40 41 41 42 42 42 43 44 44 44 45
45 45 45 45 44 44 42 41 40 39 39 38 37 37 37 36 36 36 35 35 36 36 36 36 36 37 38 38 39 40 41 41 42 43 44 44 43 44 46 46 47 47 47
44 44 45 45 45 44 44 43 42 41 40 40 39 39 38 38 37 37 37 38 38 38 38 38 38 39 39 40 41 42 42 43 44 44 46 46 46 47 48 48 49 50 50
44 44 44 45 45 44 43 43 42 41 41 41 40 40 39 39 39 39 39 39 39 39 39 40 40 41 41 42 42 43 43 44 45 46 47 48 49 50 50 50 51 52 53
45 44 45 45 45 45 44 43 43 42 42 41 41 40 40 40 40 40 40 40 40 40 41 41 42 42 43 43 43 44 45 45 46 47 48 50 51 51 52 53 53 54 54
46 45 45 45 45 45 45 45 44 43 43 43 42 42 41 41 41 41 41 41 41 42 42 43 43 43 43 44 44 45 45 46 47 48 49 51 52 53 54 55 54 55 55
45 46 45 45 45 45 45 45 45 44 44 44 44 43 43 42 42 41 41 42 42 43 43 43 43 43 43 44 44 45 46 47 48 48 50 51 53 54 54 54 55 55 55
43 45 45 46 46 45 45 45 45 44 44 44 44 43 43 43 42 42 43 43 43 43 43 43 43 43 43 44 44 45 46 46 47 48 49 51 51 52 53 54 56 57 56
42 43 44 45 46 46 45 44 44 44 43 43 43 43 43 43 43 43 43 43 42 42 42 43 43 43 43 43 44 44 44 45 46 47 48 49 50 51 52 53 54 55 54
41 42 42 43 44 45 45 44 44 44 43 43 43 42 42 42 42 42 42 42 42 42 42 42 42 42 42 43 42 42 43 44 45 46 46 47 48 49 50 50 51 50 50
39 40 41 41 41 42 43 43 42 42 42 42 41 41 41 41 41 41 41 41 41 41 41 41 41 41 41 41 41 41 42 42 43 44 44 44 45 46 46 46 46 46 46
37 38 39 40 40 40 41 41 41 41 41 40 40 40 40 40 40 40 40 40 40 40 40 40 40 39 39 39 40 40 40 40 41 41 41 42 42 42 42 42 42 41 41
35 36 38 39 39 39 39 40 40 40 40 39 39 39 39 39 39 39 39 39 39 39 38 38 38 38 37 38 38 38 38 39 39 39 39 39 39 38 38 37 37 36 36
33 34 36 37 38 38 38 38 38 38 38 38 38 38 38 37 37 37 37 37 36 36 36 36 36 36 36 36 36 36 36 37 37 36 36 36 36 36 35 35 34 34 34
29 31 32 33 35 35 36 36 36 36 37 36 36 36 36 36 35 35 35 35 35 35 34 34 34 35 35 35 35 35 35 35 34 34 34 34 34 34 33 33 33 32 31
27 28 29 30 31 31 32 33 33 34 34 34 34 34 34 34 34 34 34 33 33 33 33 33 33 33 33 33 33 33 33 33 33 32 32 32 32 32 31 31 31 30 29
24 25 25 26 28 29 29 30 31 31 31 31 31 31 32 32 32 32 31 31 31 31 32 31 32 32 32 32 32 32 32 31 31 31 31 31 31 31 31 31 30 30 31
23 23 23 24 25 26 27 28 28 29 29 29 29 29 29 30 29 29 29 30 30 30 30 30 30 30 30 30 30 30 30 30 31 31 31 31 31 31 31 31 32 32 32
22 22 23 23 24 24 25 26 26 27 27 27 27 27 27 27 27 27 28 28 28 28 28 29 29 29 29 29 29 29 29 30 30 31 31 31 31 31 32 33 33 33 34
21 22 22 22 23 24 24 24 24 25 25 25 25 25 25 25 25 26 26 26 26 27 27 28 28 28 28 28 28 29 29 30 30 31 31 31 32 32 33 33 34 35 36
21 22 22 22 22 23 23 23 23 23 24 24 24 24 24 24 24 24 24 25 25 26 26 26 26 26 27 27 28 28 29 30 31 31 31 32 33 34 34 35 36 37 38
21 21 21 21 21 22 22 22 22 23 23 23 23 23 23 23 23 23 23 24 24 25 25 25 26 26 26 27 27 28 29 30 31 32 33 33 34 35 36 36 37 39 40
20 20 21 21 21 21 21 21 21 22 22 22 22 22 22 22 23 23 23 23 23 24 24 24 25 26 26 27 28 29 30 31 32 33 33 34 35 36 37 38 39 41 42
20 21 21 21 21 21 21 21 21 21 21 21 22 22 22 22 22 22 22 22 23 23 24 25 26 26 27 28 29 30 31 32 33 34 34 35 36 37 39 40 41 43 44
21 21 21 21 21 21 21 21 21 21 21 22 22 22 22 22 22 22 22 23 23 24 25 26 27 28 28 29 30 31 32 33 34 35 36 37 38 39 40 42 43 44 46
21 21 21 21 21 22 22 21 22 22 22 22 22 22 22 22 23 23 23 24 24 25 26 27 28 29 29 30 31 32 33 34 35 36 37 38 39 40 42 43 45 46 47

GEFSMW_500_meanwind_084.txt.gz
Wind_Speed
53 53 51 50 49 48 47 47 46 44 43 42 41 40 40 39 38 37 36 36 35 34 34 33 34 34 34 35 35 36 36 37 38 38 38 39 39 40 40 41 42 42 43
52 52 52 51 50 50 49 48 47 46 46 45 44 43 42 41 40 39 38 37 37 37 36 36 36 36 36 37 37 38 38 39 40 40 41 40 39 40 41 42 43 43 44
50 50 50 50 50 50 50 50 49 48 47 47 46 45 44 43 42 41 39 39 39 39 38 38 38 38 38 39 39 40 40 40 41 42 43 42 41 41 41 42 43 44 44
47 48 49 49 49 49 50 49 49 49 49 48 47 46 45 44 42 42 41 41 40 40 40 40 40 41 41 41 41 42 42 42 42 43 43 44 44 44 43 42 43 43 43
45 46 48 48 49 49 49 49 49 49 49 48 48 47 46 45 44 43 42 42 42 42 42 42 42 42 42 42 42 43 43 44 44 44 44 44 44 45 45 44 43 43 44
44 45 45 47 48 49 49 49 49 49 49 49 49 48 47 46 45 44 43 43 43 43 43 43 43 43 43 43 43 44 44 44 45 44 44 44 44 44 45 44 43 43 44
44 45 45 45 46 48 49 49 49 49 49 49 49 49 48 47 46 45 45 45 44 44 43 44 44 44 44 44 44 44 45 45 45 44 44 44 45 44 44 44 43 44 44
44 45 45 46 47 47 49 49 49 49 49 48 48 47 47 47 46 46 45 45 45 45 45 45 45 45 45 44 44 45 45 45 44 44 44 44 44 44 43 43 43 43 43
43 44 45 46 47 48 48 49 49 49 49 49 48 48 47 47 47 46 46 46 46 46 46 46 46 46 45 45 44 45 44 44 43 43 43 43 43 42 43 43 43 43 43
40 42 44 46 47 47 48 48 48 49 49 49 49 49 49 48 48 48 48 48 47 47 46 46 45 44 44 44 44 44 43 42 42 42 43 42 42 42 42 42 43 43 42
38 40 42 44 46 47 47 48 48 49 49 49 49 49 49 49 49 48 48 48 47 47 46 45 44 44 44 43 43 42 42 41 41 42 41 41 41 41 41 41 41 41 41
36 38 39 41 43 45 46 47 47 48 48 48 48 48 49 49 49 48 48 47 47 45 44 43 43 43 43 42 41 41 41 41 41 41 41 40 40 40 40 40 40 40 40
34 36 37 38 40 41 42 44 45 46 46 46 47 47 47 47 47 47 46 45 44 43 42 42 42 42 41 40 40 40 40 40 40 39 39 39 39 39 39 39 39 39 39
32 33 35 36 37 38 39 40 41 43 44 44 45 45 45 45 45 45 44 43 43 42 42 41 40 40 39 39 39 39 39 39 38 38 38 38 38 38 38 38 38 38 38
31 32 34 35 36 37 38 38 39 40 41 41 42 42 42 42 43 43 42 42 42 41 40 40 39 38 38 38 38 38 37 37 37 37 37 37 37 37 37 37 37 37 37
30 31 32 33 35 36 36 37 38 38 39 40 40 40 40 40 40 41 41 40 40 40 39 38 37 37 37 37 36 35 35 35 36 36 35 36 36 35 36 36 36 37 36
30 30 30 31 32 33 35 36 36 37 37 38 38 39 39 39 39 39 39 39 38 38 37 37 36 36 36 35 34 34 34 34 34 34 35 35 35 35 35 35 35 36 36
28 28 29 30 31 31 32 33 34 34 35 36 36 37 37 37 37 37 37 37 36 36 36 36 35 34 34 33 33 33 33 33 33 33 34 34 34 34 34 34 35 35 35
27 27 27 28 29 30 31 31 32 33 33 33 33 34 34 34 34 34 34 34 34 34 34 34 33 32 32 32 32 32 32 32 32 33 33 33 33 33 34 34 35 35 36
27 27 27 27 27 28 29 29 30 30 31 31 31 32 32 32 32 32 32 32 32 31 31 31 31 30 30 30 30 31 31 31 31 32 32 32 32 33 34 34 35 36 37
25 25 25 26 26 26 26 27 27 28 28 28 29 29 30 30 30 30 30 30 29 29 29 29 29 29 29 29 29 30 30 30 30 31 31 32 33 33 34 35 36 37 38
25 24 24 25 25 25 25 26 26 26 27 27 28 28 28 28 28 28 28 28 28 28 28 28 28 28 28 28 29 29 29 29 30 30 31 32 33 34 35 36 37 38 39
24 24 24 24 24 25 25 25 26 26 26 26 27 27 26 26 26 26 26 27 27 27 27 27 27 27 28 28 28 28 28 29 30 31 31 33 34 35 36 37 38 39 40
23 23 24 24 24 23 24 24 25 25 25 25 25 25 25 25 25 26 26 26 26 26 27 27 27 27 27 27 28 28 29 30 31 31 32 33 35 36 37 38 39 39 41
22 23 23 23 23 23 23 23 24 24 24 25 25 25 25 25 25 25 25 26 26 26 27 27 27 27 27 27 28 29 30 31 32 32 33 35 36 37 38 39 39 40 41
23 23 24 24 24 24 24 24 24 24 25 25 25 25 25 25 25 25 26 26 26 27 27 27 27 27 28 28 29 31 31 32 33 34 35 36 37 38 39 40 40 41 42

GEFSMW_500_meanwind_090.txt.gz
Wind_Speed
56 55 53 51 50 49 48 48 47 46 46 45 45 44 44 42 41 40 39 39 37 37 36 36 35 35 34 34 34 34 35 35 35 36 36 36 36 37 38 38 38 39 39
56 55 54 53 51 50 49 49 48 47 47 47 47 47 46 45 44 43 43 42 40 40 39 38 38 38 37 37 37 37 37 37 37 38 38 37 37 38 39 40 40 41 41
55 55 54 53 53 52 51 50 49 48 48 49 48 48 48 47 47 46 45 44 43 43 42 41 41 40 40 39 39 39 39 39 39 40 40 40 39 39 38 39 40 41 41
54 55 55 54 52 52 53 52 51 50 50 51 51 50 49 49 49 48 47 47 46 45 45 44 43 43 42 42 41 41 41 41 41 41 41 42 42 42 41 39 39 40 41
52 54 55 55 54 53 52 52 52 52 51 51 52 51 51 51 51 50 49 49 48 47 47 47 46 45 44 43 42 42 43 42 42 42 42 42 43 43 43 41 41 41 41
50 52 54 55 54 53 53 53 53 53 52 52 52 52 52 52 52 52 52 51 50 49 49 48 47 46 46 45 44 44 44 44 43 43 44 44 43 43 43 43 42 41 41
47 49 50 52 52 52 52 52 53 53 52 52 52 52 53 53 53 52 53 52 52 51 50 49 49 48 47 46 46 46 45 45 45 45 45 44 44 43 43 42 42 41 41
44 45 46 48 49 50 51 52 51 52 52 52 52 52 53 53 54 53 53 52 52 51 51 50 49 49 48 48 48 47 47 46 46 45 45 44 43 43 43 42 42 41 41
41 43 44 46 48 49 50 51 51 51 51 51 52 52 53 53 53 53 53 53 52 51 51 50 50 50 50 49 49 48 47 46 45 45 44 43 43 42 42 42 42 42 41
39 41 42 44 46 47 49 50 50 51 51 51 52 52 52 53 53 53 52 52 52 52 51 51 50 50 49 48 48 48 47 47 46 45 44 43 42 42 42 42 42 41 41
37 38 39 41 43 44 45 47 48 49 50 51 51 52 52 53 53 53 53 52 51 51 51 51 50 49 49 49 49 48 47 46 46 44 43 42 42 42 42 42 41 41 40
34 35 36 38 40 42 43 44 45 47 48 49 50 51 51 52 52 52 52 51 51 51 51 51 50 50 49 49 48 47 46 45 44 43 42 41 41 41 41 41 40 39 39
32 33 34 35 37 39 41 42 44 45 47 48 48 49 49 50 51 51 51 50 50 50 50 50 49 49 48 47 47 46 45 44 43 42 41 40 40 40 39 39 38 38 38
31 32 33 33 34 36 38 39 41 42 44 45 46 47 47 47 48 49 49 49 49 49 49 48 47 47 46 46 44 44 43 43 42 41 40 39 39 38 38 37 37 37 36
30 31 32 33 33 34 35 37 38 40 41 42 43 44 44 44 44 45 45 45 46 46 46 46 45 44 44 44 43 42 41 41 40 39 39 39 38 37 37 36 36 35 35
29 29 30 31 32 32 33 34 35 37 38 39 40 41 42 42 42 42 43 43 43 43 42 41 41 41 42 41 41 40 40 39 39 39 38 37 36 36 36 35 34 34 34
28 28 29 29 30 31 31 32 33 34 35 37 38 39 39 40 40 41 41 41 41 40 40 40 39 39 39 38 38 38 38 38 38 37 37 36 35 35 35 34 34 34 34
28 29 29 29 30 30 31 32 32 33 34 35 36 37 37 38 39 39 39 39 39 39 39 39 39 38 38 38 38 38 37 37 36 36 35 35 35 34 33 33 33 33 34
28 29 29 29 29 29 30 31 32 32 33 34 34 35 36 36 37 38 38 38 38 38 37 37 37 37 37 37 37 36 36 35 35 35 34 34 33 33 33 33 33 33 33
27 28 28 28 28 29 29 30 30 31 31 32 32 33 33 34 35 36 36 37 37 37 36 36 35 35 35 35 35 35 35 34 34 34 33 33 32 32 33 33 33 33 33
27 27 27 27 28 28 29 29 30 30 31 31 31 32 32 33 33 34 35 35 35 35 35 35 35 35 34 34 34 33 33 33 32 32 32 32 32 32 32 32 32 33 33
26 26 27 27 28 28 28 28 29 29 29 29 30 30 30 31 31 31 32 32 32 32 33 33 33 32 32 32 32 31 31 31 31 31 31 31 31 32 32 32 32 33 33
25 25 26 26 27 27 27 28 27 27 28 28 29 29 29 29 30 30 30 30 30 31 31 32 32 32 31 31 31 31 30 30 30 30 31 31 31 31 31 32 33 34 34
24 24 25 25 25 25 26 26 26 26 27 27 28 28 28 29 29 30 30 30 30 29 30 30 30 30 30 30 30 30 30 30 30 31 31 31 31 31 32 33 34 34 35
23 23 24 24 24 24 25 25 26 26 26 26 27 27 27 27 27 28 28 28 29 29 29 29 29 29 29 29 29 29 30 30 30 31 31 31 31 32 33 34 35 35 36
22 23 23 23 23 24 25 25 26 26 26 26 26 26 26 26 27 27 27 28 28 28 28 28 28 29 29 29 29 30 30 31 31 31 31 32 32 33 34 35 36 36 37

GEFSMW_500_meanwind_096.txt.gz
Wind_Speed
55 55 55 54 53 52 50 49 47 46 44 43 41 40 39 39 38 38 38 38 37 37 37 36 36 35 34 34 34 34 33 33 34 34 34 35 35 36 36 37 38 38 39
55 56 55 55 54 53 52 51 50 48 47 45 44 43 42 42 41 41 40 40 39 39 39 39 38 38 38 38 38 37 37 37 37 38 38 37 37 37 37 38 39 40 41
54 55 54 54 54 54 53 52 51 50 49 48 47 46 45 44 43 42 42 42 42 42 41 41 41 41 41 41 41 41 40 40 40 40 41 41 40 39 38 39 40 41 41
52 54 54 54 53 53 53 53 52 52 51 49 48 47 46 45 44 44 44 43 43 44 43 43 43 44 44 43 44 44 44 43 43 43 43 43 43 43 42 41 41 41 41
51 52 53 53 53 53 53 53 52 52 51 51 49 49 49 48 47 46 46 45 45 45 45 45 45 45 45 45 45 46 46 46 45 45 44 44 44 45 45 44 43 43 42
50 50 50 51 52 53 53 53 53 53 52 52 52 51 51 50 50 49 49 48 47 47 48 48 47 47 47 47 48 48 48 47 47 47 47 46 46 46 46 46 45 44 43
48 49 49 49 50 51 52 53 54 53 53 52 52 52 51 52 51 50 50 50 50 50 50 51 50 50 50 50 50 50 50 49 49 48 48 47 47 47 47 46 45 45 44
45 46 46 47 49 49 51 52 53 54 54 53 52 52 52 53 53 53 52 52 53 52 52 52 53 53 52 52 52 51 51 51 50 49 49 48 48 47 47 46 46 45 44
42 43 44 44 46 47 48 49 52 53 54 53 53 52 52 53 53 53 53 53 53 52 52 52 53 54 54 53 53 52 52 51 50 50 50 49 47 47 46 46 46 45 43
39 40 41 42 43 44 46 47 48 51 52 53 53 53 53 53 54 54 54 53 53 53 53 53 53 53 52 51 51 51 51 51 50 49 48 47 47 47 46 46 45 43 43
37 37 38 39 39 41 42 43 45 47 48 50 51 52 53 53 52 53 53 53 53 52 51 51 51 51 51 52 52 51 50 49 48 48 47 47 47 46 45 44 44 43 43
34 34 35 36 37 38 39 41 42 44 46 47 49 49 49 51 51 51 51 51 51 51 51 50 51 51 51 51 50 49 48 48 48 48 47 47 46 46 45 44 43 43 42
33 32 32 34 35 36 37 39 41 42 43 44 46 47 47 48 48 49 49 49 50 50 50 50 50 51 51 51 50 50 49 49 48 47 46 45 45 44 43 43 43 42 41
32 32 32 32 33 34 35 36 38 40 41 43 43 44 45 46 46 46 47 48 48 49 49 49 49 49 49 49 49 49 48 48 47 46 45 44 43 43 42 42 41 40 39
31 31 32 32 32 32 33 34 35 36 37 39 40 41 42 43 44 46 46 46 47 47 47 47 47 48 47 47 47 46 46 46 45 45 44 43 42 41 41 40 39 39 38
30 30 30 30 30 31 31 32 33 34 35 36 37 39 40 40 41 42 42 43 44 44 44 44 44 45 45 45 44 44 44 44 43 43 42 41 40 40 39 39 38 38 37
29 29 29 29 29 30 30 31 32 33 33 34 35 36 38 39 39 39 40 41 42 42 43 43 43 43 43 43 43 43 42 41 40 40 40 39 39 38 38 38 37 37 36
27 28 28 28 29 29 30 30 31 31 32 33 34 34 35 36 37 38 38 39 39 40 41 41 41 41 41 42 41 41 41 41 40 39 39 38 38 38 38 37 36 35 35
27 28 28 28 29 29 29 29 30 30 31 32 33 34 35 35 36 37 37 38 38 39 39 39 40 40 40 40 40 39 39 39 39 38 38 37 37 37 36 35 35 34 34
28 28 28 29 29 29 29 30 30 31 32 32 33 34 34 35 36 36 37 37 37 37 38 38 38 39 39 39 39 38 38 38 37 37 36 36 36 36 35 34 34 33 33
27 28 28 29 29 29 30 30 30 31 31 32 32 33 33 34 35 35 35 36 36 36 36 37 37 37 37 37 37 36 36 36 36 35 35 35 35 34 34 33 32 32 32
26 27 28 29 29 30 30 30 30 31 31 31 32 32 33 33 34 34 34 34 35 35 35 35 35 34 34 34 35 35 35 35 35 34 34 33 33 33 32 31 31 31 31
26 27 28 28 29 29 29 30 30 31 31 31 31 32 32 32 32 33 33 33 33 33 33 33 33 33 33 33 33 33 33 33 33 33 33 33 32 32 31 30 30 31 31
25 26 27 27 28 28 29 30 30 31 31 31 31 32 32 32 32 32 31 32 32 32 32 32 32 32 32 32 32 32 32 32 32 32 32 32 31 31 31 31 31 31 31
25 26 26 27 27 28 28 29 30 30 31 31 31 31 31 31 31 31 31 31 31 31 31 30 30 30 30 29 29 30 30 30 30 30 31 31 31 31 31 31 31 31 32
25 25 26 26 27 27 28 29 29 29 30 30 30 30 30 30 30 30 30 30 30 30 29 29 29 28 29 29 29 29 29 29 30 30 31 31 31 31 31 31 32 32 33

GEFSMW_500_meanwind_102.txt.gz
Wind_Speed
51 52 52 50 50 50 49 47 47 45 44 44 42 41 38 36 35 34 34 34 33 33 32 33 33 33 33 33 33 33 33 33 33 33 34 34 35 35 36 36 37 38 38
51 51 51 52 51 50 49 49 48 47 44 44 43 42 41 39 38 37 36 35 35 35 35 35 35 35 36 36 36 36 36 37 37 37 37 36 36 36 37 38 39 39 39
49 50 51 52 52 51 50 48 48 48 46 45 45 44 43 42 41 40 39 38 37 37 37 37 37 37 37 37 37 37 37 38 39 39 38 38 38 38 39 39 39 40 40
48 49 50 51 51 52 52 51 50 49 49 47 46 45 45 43 42 41 41 40 40 40 40 40 40 39 39 39 39 39 39 39 39 39 40 40 41 40 41 40 41 41 41
47 47 48 49 50 50 51 52 51 50 50 48 47 47 47 45 45 44 44 44 43 43 42 42 42 41 41 42 42 42 41 41 41 42 43 43 44 44 44 43 43 43 42
48 48 48 49 50 50 50 51 51 51 50 49 48 48 47 46 46 46 46 46 46 45 45 45 44 44 44 43 43 43 43 43 43 44 45 46 46 45 46 46 45 44 44
47 46 46 47 49 49 49 50 51 51 51 50 49 49 48 48 48 48 48 47 47 47 46 46 46 46 46 46 46 46 45 46 46 46 46 47 47 47 48 48 47 46 44
46 47 46 47 47 48 49 49 49 50 50 51 51 50 49 49 49 49 49 49 49 49 48 48 48 48 48 49 49 48 48 47 47 48 48 48 48 48 48 48 48 47 46
44 45 45 46 46 47 48 49 49 49 50 50 51 51 51 51 50 50 50 50 50 50 49 49 49 49 49 49 49 49 49 50 49 50 50 50 48 48 48 48 48 47 46
42 43 43 44 45 46 46 48 49 49 49 49 49 49 50 50 50 51 50 50 50 50 50 50 50 49 49 50 50 50 50 51 51 51 50 49 49 48 48 47 46 46 46
40 42 43 43 44 44 45 46 47 48 49 49 50 50 50 50 50 50 50 51 51 51 50 50 51 51 51 51 51 51 51 51 50 49 49 49 49 48 47 46 45 44 44
39 41 41 41 42 44 44 45 45 46 47 48 48 49 49 49 48 48 48 49 49 49 49 50 50 50 50 50 50 50 50 50 50 49 49 48 48 47 46 45 45 44 44
38 39 39 40 40 42 43 43 44 44 45 45 46 47 47 47 47 48 49 49 49 48 48 49 49 49 49 49 50 50 50 50 49 48 48 47 46 46 45 45 45 44 44
37 39 39 39 39 40 40 41 42 43 44 44 44 45 46 46 47 48 48 49 49 48 48 49 49 49 49 49 48 48 48 47 47 46 46 45 45 45 45 45 44 44 44
34 37 38 37 38 39 39 40 40 41 42 42 43 44 44 45 45 45 45 46 46 47 47 47 47 47 47 47 47 47 45 45 45 45 44 44 44 44 44 43 43 43 42
31 34 36 36 36 37 38 38 39 39 39 40 41 41 42 43 43 44 44 44 45 45 46 46 45 45 44 44 44 44 44 44 44 44 43 43 43 43 43 42 42 41 40
29 31 33 35 36 37 37 37 37 38 38 38 38 39 40 41 42 42 43 43 43 43 43 43 43 42 42 42 42 42 42 43 43 43 43 43 43 42 42 42 41 40 39
28 29 31 33 34 35 36 37 37 37 37 37 37 38 39 40 40 40 40 40 40 40 41 41 41 41 41 41 41 41 42 42 43 42 42 42 41 41 41 40 39 38 38
28 29 30 32 33 34 35 35 36 36 36 36 37 37 37 37 38 38 38 39 39 38 38 39 39 40 40 41 41 41 41 41 41 41 41 41 41 40 40 39 38 38 37
28 29 30 31 32 33 33 34 34 35 35 35 36 36 36 37 37 37 38 38 38 38 38 38 39 39 40 40 40 40 40 40 39 39 39 40 40 40 39 37 37 37 36
27 28 29 30 31 32 32 33 34 35 35 35 36 36 36 36 36 36 37 37 37 38 38 38 38 38 38 38 38 38 38 38 38 38 37 37 37 37 37 36 36 35 35
27 28 28 29 29 30 31 32 33 34 34 35 35 35 36 36 36 36 36 36 36 37 37 37 37 37 37 37 37 37 37 37 36 36 36 36 35 35 35 35 34 34 34
28 28 29 29 30 30 30 31 32 33 33 34 35 35 36 36 36 36 36 36 36 36 36 36 36 36 36 36 36 36 36 36 35 35 34 34 34 34 34 33 33 33 33
27 28 29 29 30 31 31 31 32 33 33 34 34 34 34 34 35 35 36 36 36 36 36 36 36 35 35 35 35 35 34 34 34 34 33 33 33 33 32 32 32 32 32
26 27 27 28 29 30 31 31 32 32 33 33 33 33 34 34 34 35 35 35 35 35 35 35 35 34 34 34 34 34 34 34 33 33 32 32 31 31 31 31 31 31 31
25 26 27 28 28 29 29 30 31 32 32 32 33 33 33 34 34 34 35 34 34 34 34 34 34 34 34 34 34 33 33 32 32 32 32 31 31 31 31 31 31 31 31

GEFSMW_500_meanwind_108.txt.gz
Wind_Speed
54 53 52 51 50 49 48 48 45 44 43 42 41 40 38 37 36 36 34 33 32 31 31 30 30 30 30 30 31 31 32 33 33 33 33 33 34 34 35 35 35 36 36
54 52 51 53 52 50 49 48 49 46 44 43 42 41 40 39 39 38 37 36 35 34 33 32 32 32 32 33 33 34 34 34 35 35 35 34 34 35 35 36 37 37 38
53 53 52 51 51 51 51 50 49 47 44 44 45 44 42 41 40 40 38 38 37 35 35 35 35 35 34 35 36 36 36 36 37 37 36 36 35 34 35 36 37 39 39
52 53 52 52 51 49 50 50 49 49 46 45 46 45 44 42 41 41 40 41 40 39 37 37 37 36 36 36 37 38 38 37 37 37 38 38 37 38 37 38 39 40 41
52 53 52 53 53 50 50 49 49 48 48 48 47 45 45 44 43 42 41 41 40 40 40 40 39 38 38 37 38 38 38 39 39 39 39 39 40 41 41 40 40 40 41
51 52 52 53 53 52 51 49 49 49 48 48 46 45 46 45 45 44 44 44 43 42 42 40 39 39 38 38 38 39 40 40 41 41 41 42 42 43 43 42 41 41 43
52 51 51 52 52 51 51 50 50 50 49 48 47 46 46 46 46 46 46 46 45 44 44 43 41 40 40 40 41 41 42 42 43 43 43 44 44 45 45 45 45 45 44
51 51 50 51 51 50 50 51 49 49 50 49 48 48 47 47 46 46 46 46 46 45 45 44 44 43 44 44 43 44 44 45 45 45 45 45 45 46 47 47 46 45 45
48 48 50 50 50 49 48 48 48 48 48 48 48 48 48 47 45 45 45 46 46 46 45 45 45 45 45 45 46 47 47 47 46 46 46 46 47 47 47 46 46 46 45
44 45 46 48 48 48 47 47 48 47 47 48 48 49 48 46 45 45 45 45 45 45 45 45 44 44 45 45 45 45 46 45 45 45 46 47 46 46 47 48 48 48 48
42 44 44 45 47 48 48 48 47 47 48 48 48 48 48 47 46 45 44 44 45 47 47 46 46 46 44 44 46 47 46 46 46 46 46 47 47 47 47 47 48 48 48
38 41 42 43 45 46 48 48 48 48 47 48 47 47 48 48 46 45 44 44 45 46 46 46 46 47 47 47 47 47 47 46 46 46 46 46 46 46 47 47 47 47 47
34 37 39 41 42 44 46 46 46 47 47 47 47 47 47 47 47 47 46 46 46 46 47 48 48 47 46 46 46 46 46 46 46 46 46 47 46 46 46 46 46 46 46
31 33 36 38 40 41 43 44 45 47 47 47 47 48 48 48 49 49 49 48 48 46 46 46 47 47 47 47 47 47 47 47 46 46 46 46 46 46 45 45 45 45 45
29 31 32 34 37 39 41 42 44 45 46 46 46 47 48 48 48 49 48 48 47 46 45 45 45 46 46 46 46 46 45 45 45 46 47 46 46 46 46 46 46 46 45
27 30 33 34 36 37 39 40 41 43 45 46 46 46 47 47 47 48 48 47 46 46 45 45 45 45 45 45 46 46 46 46 46 46 46 46 46 46 45 45 45 44 44
28 29 31 33 35 37 38 40 41 41 42 44 44 44 45 45 45 46 45 45 45 45 45 45 45 45 45 45 45 45 45 46 45 45 45 44 44 44 43 43 42 42 42
27 29 31 31 33 36 37 38 40 40 41 42 43 43 43 43 43 43 44 44 45 45 44 44 43 43 44 44 44 44 44 43 43 43 43 43 42 41 41 41 41 40 40
27 28 30 31 33 35 36 37 38 39 40 41 42 42 42 42 42 43 43 43 43 43 43 43 43 43 42 42 43 43 43 43 43 42 42 41 41 40 40 40 40 40 40
27 29 30 32 33 34 35 36 37 39 39 39 40 40 40 41 42 42 42 42 42 42 42 42 42 42 42 42 43 43 43 42 41 41 41 40 40 40 39 39 39 39 39
28 29 30 31 32 33 34 35 37 38 38 38 38 39 39 40 40 40 41 40 40 40 40 41 41 42 42 42 42 41 41 41 40 40 40 40 40 40 39 39 39 38 38
29 30 30 30 31 32 33 34 36 37 37 37 38 38 39 39 39 39 40 40 40 41 41 41 41 41 41 41 40 40 40 40 40 40 40 40 39 39 38 38 38 37 36
29 31 32 31 31 31 32 33 34 35 36 37 38 39 39 39 39 40 40 40 41 40 39 40 40 40 40 40 40 40 40 40 40 39 39 38 38 37 37 36 36 35 35
28 28 30 31 31 31 31 32 33 34 35 35 36 37 38 39 38 39 39 39 40 40 39 39 39 39 39 39 40 40 40 40 39 38 38 38 37 37 36 36 35 34 34
27 27 27 29 30 31 31 31 32 32 33 34 35 36 37 37 38 38 38 38 39 39 38 38 38 38 38 39 39 39 39 38 38 38 37 37 36 36 36 35 34 33 33
27 27 27 27 28 29 30 30 31 31 33 33 34 36 36 37 37 38 37 38 38 38 38 38 38 38 38 39 39 38 38 38 37 37 36 36 35 35 35 34 33 33 32

GEFSMW_500_meanwind_114.txt.gz
Wind_Speed
53 53 52 51 48 49 52 51 51 51 50 48 47 47 47 46 44 43 41 40 38 37 35 34 34 33 33 32 31 30 30 30 30 30 30 30 30 31 32 32 32 33 33
53 54 52 51 50 49 52 50 51 52 51 51 49 48 47 47 46 45 44 42 40 39 37 37 36 36 35 34 32 32 32 32 32 32 32 32 32 32 32 33 33 33 33
51 53 51 49 49 50 52 50 49 51 51 51 49 49 48 49 48 46 45 43 42 41 40 39 39 38 37 36 35 35 34 34 34 33 33 33 33 32 33 33 34 34 35
47 49 50 48 49 49 49 51 50 48 48 50 48 48 47 47 46 46 47 45 44 43 42 41 40 39 39 38 37 37 37 37 36 36 35 34 34 34 34 35 36 36 37
45 48 49 49 49 50 50 50 51 50 48 50 49 49 48 47 47 48 48 48 47 46 44 42 40 40 40 40 40 40 39 38 38 37 35 35 35 35 35 35 36 37 37
44 47 47 48 49 49 48 49 51 52 50 49 49 49 47 46 47 47 47 46 46 46 45 45 43 42 41 40 40 39 39 38 37 36 35 35 36 35 35 36 36 37 37
42 45 47 47 48 48 48 49 50 50 50 50 50 49 48 48 47 47 47 46 45 44 44 44 43 42 42 41 41 40 40 38 38 36 36 36 37 37 37 38 37 38 38
39 42 44 44 45 47 48 49 49 51 50 49 50 50 49 48 48 47 47 47 47 45 45 44 43 42 42 43 41 41 40 39 38 37 37 38 38 39 39 39 38 38 39
37 40 41 42 43 45 47 50 49 50 50 49 50 49 48 48 50 48 47 48 48 47 46 45 44 43 43 43 42 42 42 40 40 38 37 37 38 40 39 40 41 41 40
33 37 40 42 43 45 46 48 48 49 48 46 47 47 47 47 48 49 49 48 48 47 47 46 46 45 44 43 43 43 42 43 40 37 37 38 40 40 40 40 41 41 42
32 36 38 40 43 44 46 45 46 47 47 45 45 44 45 46 46 48 48 48 49 49 49 47 46 45 45 45 45 45 44 43 40 40 41 41 41 40 40 41 41 41 41
28 32 35 37 39 42 43 44 43 43 43 44 43 42 42 43 44 45 46 45 46 45 46 46 46 45 45 44 44 44 43 43 41 41 42 42 42 41 41 41 41 41 40
23 27 30 33 36 39 41 41 41 42 43 42 42 41 41 42 42 43 43 43 42 42 43 44 45 45 44 43 42 41 41 41 41 41 42 42 41 41 42 41 41 41 41
21 24 27 30 33 35 38 39 40 41 41 42 42 42 43 43 43 43 44 44 43 42 42 43 44 45 44 42 41 41 41 41 41 42 42 42 42 42 41 41 41 41 42
19 21 23 26 29 32 35 37 39 40 40 41 42 42 43 44 45 45 44 44 43 42 42 42 42 42 42 42 42 42 42 42 42 42 42 42 42 41 41 42 42 42 42
20 20 21 24 27 30 33 36 37 39 40 42 43 44 43 44 44 44 44 44 43 42 41 42 42 42 42 42 43 42 42 42 42 42 42 42 42 42 42 42 42 42 42
19 21 23 25 26 28 30 33 35 38 40 41 42 43 43 43 43 43 43 43 43 43 42 43 43 42 42 42 42 42 42 43 43 43 43 42 42 42 41 41 41 41 41
18 21 23 25 27 28 29 32 34 35 38 39 40 40 41 42 42 42 43 43 44 43 43 42 43 43 42 41 41 40 41 42 42 41 41 41 41 40 40 39 40 39 39
20 21 23 24 27 29 30 32 34 35 36 37 38 39 40 40 41 41 41 42 43 43 42 41 41 41 41 41 41 41 40 40 40 40 40 40 40 39 39 39 39 39 39
23 23 24 26 27 28 30 31 33 35 36 37 37 38 39 39 39 40 40 41 42 43 42 42 42 42 42 41 40 40 39 39 40 40 40 40 39 39 39 38 38 38 37
24 25 26 27 28 29 30 31 32 33 35 36 37 38 38 38 38 39 40 40 41 41 41 42 42 41 41 41 41 40 39 39 39 39 39 39 39 39 38 37 37 37 37
26 27 29 30 29 30 30 30 31 32 33 34 35 36 36 37 37 37 38 39 40 40 40 40 40 40 40 40 39 39 39 39 39 39 39 38 38 38 37 37 37 37 36
26 28 30 31 31 31 31 31 31 31 32 33 34 34 35 36 37 37 38 38 39 39 40 40 39 40 39 39 39 39 39 39 39 39 38 38 37 37 37 37 37 37 37
27 28 30 31 32 32 33 32 32 32 32 33 33 33 34 35 35 36 37 38 39 39 40 40 40 40 40 39 39 39 38 38 39 38 38 37 37 37 37 37 37 37 37
27 28 28 29 30 31 32 33 32 32 32 33 34 34 34 34 34 35 35 36 37 38 38 38 38 38 38 38 38 38 38 38 38 38 37 37 37 37 37 37 37 36 36
27 27 27 28 28 30 31 31 32 33 33 33 33 34 34 34 35 35 35 36 37 38 39 38 38 38 39 39 39 38 38 38 38 38 37 37 37 37 37 37 36 36 35

GEFSMW_500_meanwind_120.txt.gz
Wind_Speed
44 46 49 51 53 53 54 55 54 52 51 51 50 49 49 49 50 49 48 45 44 42 41 40 39 37 36 35 35 34 33 32 32 32 31 31 31 30 30 31 32 32 31
44 46 46 46 48 50 52 51 52 52 51 49 49 48 47 48 49 49 48 47 46 44 42 41 40 39 38 38 37 36 35 34 34 33 33 32 32 32 32 32 32 32 32
38 40 44 44 44 47 50 50 49 52 52 50 49 50 49 49 48 48 49 48 47 45 44 43 43 42 41 40 38 37 36 37 35 34 34 33 34 33 33 34 33 33 33
36 36 38 41 42 45 46 45 48 50 51 50 50 49 50 48 47 47 47 48 47 45 46 46 45 44 43 42 40 39 39 38 37 37 36 36 36 35 34 35 34 34 34
31 34 35 37 39 42 44 42 45 49 50 48 48 47 49 48 48 48 48 48 47 47 47 47 47 46 45 44 43 42 41 40 39 38 38 37 36 36 36 36 35 35 35
28 30 31 34 36 38 41 43 42 45 48 49 47 48 48 46 46 47 48 48 48 48 48 48 48 48 47 45 44 43 43 41 40 39 39 37 37 37 37 37 36 35 35
24 27 29 32 33 34 37 40 40 41 45 47 47 46 47 46 46 47 48 48 47 49 49 49 49 49 48 48 47 46 44 43 42 42 40 38 38 38 38 37 37 36 35
20 24 28 31 32 32 35 38 39 40 43 45 44 44 43 47 47 47 47 47 46 47 48 49 49 49 49 48 48 47 46 45 44 42 41 40 40 39 38 37 37 37 36
18 23 27 30 30 30 31 33 37 39 40 43 44 44 44 46 46 46 45 46 46 46 46 48 48 48 48 48 48 48 47 46 44 43 42 41 41 41 39 38 37 37 36
15 18 23 26 28 29 30 30 32 34 38 42 43 43 43 46 46 44 42 42 43 46 46 45 45 46 46 47 47 47 47 46 45 44 44 43 42 40 39 39 39 38 37
15 16 18 23 26 28 29 30 31 33 34 36 39 41 41 43 43 43 42 41 41 42 43 45 45 45 45 45 45 46 46 46 46 46 45 42 41 41 41 40 40 39 38
15 16 18 20 23 26 28 30 31 33 34 35 36 37 38 40 42 42 42 42 43 44 45 46 46 46 46 47 48 47 47 46 46 46 46 45 43 42 41 41 40 39 38
15 15 16 18 21 23 26 28 29 30 32 33 34 35 37 39 41 43 44 43 43 44 45 47 48 47 47 48 49 50 50 49 48 48 47 45 43 41 40 40 40 39 39
14 16 17 18 21 23 25 27 29 30 31 31 31 33 35 37 39 40 42 44 44 44 44 45 47 47 47 46 47 47 46 47 47 46 45 42 41 41 41 41 40 40 40
13 14 16 18 19 20 22 24 26 28 29 29 30 31 33 35 37 38 40 42 43 44 45 46 45 45 44 44 44 44 44 45 45 43 42 42 42 41 42 42 42 42 43
13 14 15 16 18 19 20 22 24 26 28 29 29 31 33 34 37 39 40 41 42 43 45 47 46 44 44 43 43 42 41 42 42 43 43 43 43 42 43 43 43 42 41
14 15 16 17 19 20 22 23 24 26 28 29 30 31 33 34 36 37 39 41 42 43 42 43 43 42 42 43 42 42 41 42 42 42 43 44 43 43 43 42 41 40 40
15 17 18 19 20 22 23 24 25 26 27 28 29 30 32 34 35 36 39 40 41 41 40 40 40 41 40 41 41 41 41 42 43 44 44 44 44 44 43 42 41 40 40
17 19 20 21 22 23 24 25 26 27 28 29 31 31 32 34 35 37 37 38 39 39 38 38 38 39 40 40 40 40 40 40 41 42 42 42 42 42 42 41 41 41 41
19 20 21 22 23 25 26 26 28 29 30 31 31 32 32 32 35 36 37 37 38 37 38 38 37 38 39 39 39 39 39 39 40 40 40 40 41 42 41 40 40 40 40
21 22 23 24 24 25 26 27 28 30 31 32 32 32 32 33 34 35 36 37 37 38 38 37 37 37 38 38 39 39 39 39 40 41 41 41 41 41 41 40 40 39 39
24 25 26 26 26 27 27 28 29 30 31 31 32 34 34 34 35 35 36 37 37 38 38 37 36 37 38 38 39 39 39 40 40 40 40 40 40 41 40 40 40 39 39
26 27 28 28 28 28 27 27 28 29 31 32 33 33 34 35 35 36 37 38 38 38 38 39 38 37 37 38 39 39 38 39 39 39 39 39 39 39 40 40 39 39 39
28 29 29 29 28 28 28 29 29 29 30 32 33 34 34 35 35 37 38 38 38 38 39 38 39 38 38 39 39 39 39 39 39 39 39 40 40 39 38 39 39 39 39
28 29 31 30 29 28 28 28 29 30 32 33 34 34 35 36 36 37 38 39 39 38 38 38 38 39 39 39 39 40 39 39 39 38 39 39 39 38 38 38 38 38 38
29 30 31 31 29 28 28 28 28 30 32 33 34 35 36 37 37 37 38 39 39 39 39 39 39 38 38 38 39 39 39 38 37 38 38 38 38 38 38 38 38 38 37

GEFSMW_500_meanwind_126.txt.gz
Wind_Speed
35 38 40 44 49 50 52 52 51 53 55 56 57 60 57 55 53 52 53 53 51 50 48 45 44 42 41 40 39 38 37 36 35 35 34 34 34 34 33 32 33 33 33
32 35 37 41 45 48 48 51 51 52 53 54 55 58 58 55 54 52 53 52 51 52 49 48 46 45 44 43 42 41 39 39 37 37 37 36 35 35 34 34 34 33 33
27 32 34 36 40 42 44 46 49 50 51 51 52 55 57 55 53 53 52 52 51 51 49 48 47 47 46 45 44 43 42 41 40 39 39 38 37 36 35 35 34 34 34
23 27 30 34 36 37 39 41 43 45 48 51 51 52 53 54 53 52 52 52 51 49 49 49 49 49 47 46 46 45 44 44 42 41 40 39 39 38 37 36 35 35 36
18 22 26 30 32 34 36 39 40 41 45 48 49 51 52 53 53 53 52 52 52 50 49 51 50 50 49 48 48 47 45 45 44 42 41 41 41 40 39 38 37 37 37
15 17 22 27 28 29 33 37 38 40 43 45 47 49 51 52 52 52 52 52 53 52 51 51 51 51 50 50 50 49 47 46 45 44 44 44 43 42 41 39 39 39 39
11 13 16 21 25 27 29 32 35 37 39 41 44 46 48 48 49 51 52 52 52 52 51 52 52 51 50 50 50 51 49 49 48 46 46 46 45 45 43 41 41 41 41
8 10 12 16 19 23 27 28 30 32 34 37 39 43 43 44 45 46 48 51 51 52 51 52 51 52 52 51 51 51 51 51 50 49 48 47 47 46 45 44 44 43 41
6 8 10 12 15 18 21 24 27 29 32 33 35 38 40 42 42 44 46 49 51 51 51 52 52 52 52 51 50 49 50 51 51 50 50 48 47 47 46 45 45 44 42
3 6 9 11 13 15 19 22 23 24 26 28 31 35 39 41 41 43 44 47 49 49 50 50 50 51 50 50 49 49 49 50 49 48 47 46 46 47 46 46 46 46 45
2 5 7 9 12 14 16 19 20 22 23 25 27 31 36 39 41 43 45 45 45 46 47 48 48 49 49 49 48 48 48 48 48 48 47 46 46 47 46 46 47 47 47
3 5 6 8 10 12 14 16 18 20 21 23 25 28 30 34 37 38 40 42 42 42 43 45 45 46 47 47 47 47 48 49 49 48 47 47 47 47 47 47 48 48 47
2 3 5 6 7 9 11 14 15 18 19 19 21 23 26 29 32 34 37 38 40 41 42 42 44 45 46 46 46 47 47 48 49 49 48 48 48 48 48 49 48 48 47
5 5 5 5 6 7 8 10 12 14 17 18 20 21 23 25 28 32 34 36 38 39 40 42 44 46 47 46 46 46 47 48 48 48 49 49 49 49 49 49 49 49 47
7 7 6 7 8 8 9 11 12 14 15 17 20 21 22 23 26 29 31 35 36 38 39 41 44 46 46 46 46 47 47 48 49 49 48 49 49 48 48 48 47 48 47
8 8 7 8 8 9 11 12 12 14 17 19 20 21 22 23 24 26 27 30 33 36 38 39 42 44 45 45 45 46 46 47 48 48 48 47 47 47 47 46 46 47 46
9 9 8 9 9 10 11 13 14 15 17 19 20 21 22 24 26 28 29 31 32 34 36 39 41 42 43 44 45 45 46 45 46 47 47 46 46 46 46 46 47 47 46
11 11 11 11 12 13 14 15 17 18 20 22 23 24 24 26 28 30 31 33 34 35 35 37 39 41 42 43 44 45 45 44 44 45 45 45 45 45 46 45 45 46 45
14 14 15 15 16 16 17 18 20 21 23 24 25 26 28 29 30 31 32 33 35 36 36 38 40 42 43 45 45 45 45 45 45 44 45 46 46 46 46 45 44 44 44
15 17 18 18 19 19 19 20 21 23 24 25 26 28 29 30 31 32 32 34 35 37 37 38 39 41 43 44 45 46 46 46 45 45 45 45 46 46 46 46 45 45 45
17 18 18 19 20 21 21 22 23 25 25 26 26 27 28 29 30 31 32 34 35 36 37 39 40 40 42 43 44 45 45 45 45 45 45 45 46 45 45 46 46 46 45
19 20 20 20 22 23 23 24 25 26 26 26 26 27 28 30 31 32 34 35 35 34 35 37 38 40 41 42 43 44 45 46 46 46 46 45 44 44 45 46 46 45 45
21 22 23 24 24 25 26 26 26 26 26 26 27 28 29 29 31 32 34 35 36 36 36 36 38 40 41 41 43 42 43 45 45 45 45 44 43 44 45 45 44 44 44
22 24 25 26 27 27 27 28 28 27 27 26 26 26 28 30 31 32 32 33 35 35 35 36 38 39 40 41 41 41 42 43 44 44 44 44 44 43 42 42 42 42 42
24 26 27 29 29 30 30 30 29 29 29 28 28 28 29 30 31 32 33 34 34 35 35 35 37 38 39 39 39 39 41 42 42 42 43 43 43 43 43 43 42 41 41
26 28 29 30 31 31 31 31 31 31 30 30 30 30 31 31 32 33 34 34 35 35 35 36 36 37 38 39 39 40 40 41 41 41 42 43 43 42 42 42 41 41 40

GEFSMW_500_meanwind_132.txt.gz
Wind_Speed
30 32 35 36 41 44 46 48 50 50 50 52 54 54 55 54 55 55 53 52 52 51 49 49 48 47 45 43 43 42 41 39 38 38 37 37 36 35 34 34 34 34 34
26 28 32 34 36 40 43 45 48 48 48 48 50 52 54 55 55 56 54 53 53 52 51 50 50 49 47 46 45 44 43 42 42 41 41 40 38 37 37 36 36 36 36
26 26 28 30 33 37 39 41 43 44 45 46 48 50 51 53 55 56 55 55 54 55 54 52 51 50 49 47 46 46 45 44 45 44 43 42 41 40 39 38 38 38 38
22 24 25 27 30 33 36 39 40 40 40 42 45 46 48 48 51 53 54 54 54 55 54 53 52 52 51 49 48 48 47 47 47 47 46 46 44 44 42 41 41 40 40
17 18 20 23 26 29 32 34 36 38 38 39 43 45 46 48 50 51 53 54 54 55 55 54 53 52 51 50 49 49 49 48 48 48 47 47 47 46 45 43 43 42 42
13 14 15 18 21 26 30 31 31 33 35 37 39 43 45 45 47 49 49 51 52 53 54 54 54 53 53 53 52 50 50 49 49 49 49 49 48 47 47 46 46 45 44
9 11 13 15 17 20 24 26 27 29 32 34 35 39 43 43 43 45 47 48 49 50 52 54 53 52 52 52 52 52 51 51 50 50 50 50 49 49 48 48 48 47 47
6 7 9 10 13 16 19 21 22 26 29 31 33 35 38 41 41 44 46 47 48 48 50 52 53 53 52 53 54 52 51 51 51 50 49 50 50 49 49 48 49 49 49
4 4 6 7 9 12 15 17 19 22 26 29 31 32 34 37 40 42 45 47 48 48 48 50 51 52 52 53 54 55 53 52 51 51 51 51 51 51 51 50 50 50 50
3 3 3 4 6 9 11 14 17 20 22 25 28 31 32 33 35 39 41 44 46 47 48 49 50 52 53 53 52 54 55 55 54 53 53 52 51 51 51 50 50 51 51
3 3 3 3 5 6 8 10 13 17 18 21 24 28 31 33 34 36 39 41 44 45 47 48 49 51 52 53 53 52 53 55 55 55 54 53 52 51 52 51 51 51 50
4 4 3 3 2 3 5 7 10 13 16 18 20 24 28 31 33 35 38 41 44 46 45 45 46 47 50 51 52 52 53 54 55 56 55 54 52 51 51 50 50 50 50
5 4 4 5 4 4 5 6 8 9 12 15 18 21 24 28 31 32 34 38 41 43 44 44 45 46 48 51 53 53 53 53 53 54 55 53 53 53 52 51 50 49 49
6 5 6 6 6 6 6 7 8 9 10 13 16 18 20 25 28 30 32 35 37 39 41 44 44 45 48 50 53 54 54 54 54 53 53 53 53 52 51 51 50 49 49
7 6 6 7 8 8 8 8 9 9 10 12 13 15 17 20 23 27 30 32 35 37 39 43 44 45 47 48 50 53 53 53 53 54 53 52 52 51 51 51 51 51 51
9 9 9 8 8 8 9 10 11 11 12 13 14 15 17 19 21 25 29 31 34 36 38 41 42 43 44 45 46 47 49 50 51 51 51 51 51 51 52 52 52 52 52
9 10 11 10 10 11 11 11 11 13 14 15 16 18 19 20 22 24 27 30 33 35 38 40 41 42 43 45 45 47 47 48 49 50 51 52 53 53 53 53 52 53 53
10 11 12 12 13 13 13 14 15 16 17 17 18 19 20 21 22 24 27 30 32 34 36 37 39 41 42 44 45 47 48 48 48 49 50 51 52 53 52 52 52 53 52
12 13 13 14 14 15 16 18 18 19 20 20 20 21 22 23 24 25 27 29 32 33 34 36 37 39 41 43 44 46 46 46 46 46 47 48 49 50 50 51 51 50 50
14 15 16 16 16 17 19 20 21 21 22 22 23 23 24 24 25 26 27 28 30 31 33 35 36 38 40 42 43 44 44 44 45 46 47 48 48 49 49 50 50 49 49
15 16 17 18 19 19 20 21 22 23 23 24 25 26 25 25 26 27 27 28 30 31 33 34 36 37 38 39 40 42 43 43 44 44 46 47 48 49 49 48 49 49 49
17 18 19 20 21 21 22 22 24 25 26 27 27 26 26 27 27 28 28 28 30 31 32 33 34 35 37 39 40 41 41 41 43 43 44 44 46 47 47 47 47 48 49
19 20 21 22 23 24 24 24 26 27 28 28 29 28 28 28 29 29 30 31 31 32 32 34 35 36 37 38 39 40 41 41 41 41 41 41 42 43 44 45 45 45 46
21 21 22 23 24 25 26 27 28 29 30 31 30 29 30 30 30 31 32 33 33 33 33 34 35 35 37 37 38 38 39 39 39 40 41 42 42 43 43 43 43 43 44
22 23 24 25 26 27 28 30 31 32 33 32 32 33 33 33 33 33 33 33 33 33 33 34 34 35 36 36 37 38 38 38 38 38 38 39 41 41 41 40 39 40 40
25 26 27 28 28 29 30 31 33 34 34 34 34 35 35 36 35 35 35 34 34 34 34 35 35 35 35 35 36 36 37 37 38 38 37 37 38 39 40 40 40 40 40

GEFSMW_500_meanwind_138.txt.gz
Wind_Speed
24 25 27 29 31 33 35 38 42 46 49 50 51 52 53 53 52 52 52 51 49 49 48 49 48 48 48 46 45 44 43 42 42 42 41 40 40 39 38 37 36 36 36
21 22 24 26 28 30 31 34 39 42 44 47 48 50 52 53 53 52 53 52 51 51 49 48 48 48 48 48 47 47 46 46 44 43 44 44 43 42 41 40 40 39 39
20 21 22 23 25 28 30 32 36 39 41 44 45 47 51 53 53 52 51 52 51 50 49 49 50 49 50 50 50 50 48 48 47 47 46 46 45 44 44 43 43 42 41
17 18 21 23 24 25 28 31 33 37 40 43 45 46 48 51 52 51 51 52 51 50 51 51 52 51 52 52 52 52 50 49 49 49 48 47 47 47 46 45 44 44 43
15 15 18 20 23 24 26 28 30 34 38 41 42 44 45 47 49 50 51 51 51 51 52 52 52 53 54 54 53 53 53 51 50 50 50 49 48 48 48 46 46 46 46
13 13 14 15 18 20 23 25 27 30 34 36 39 40 42 44 46 47 49 50 50 50 51 53 53 52 53 54 54 54 54 53 52 52 52 51 50 49 49 48 48 48 48
11 11 11 13 14 16 18 21 23 26 30 32 35 37 39 42 43 44 46 48 49 49 50 51 52 53 54 55 56 57 56 54 54 53 53 53 53 51 50 51 51 51 50
8 10 10 10 10 12 13 16 19 21 24 28 31 34 35 38 41 42 43 45 47 47 48 49 50 50 51 53 55 55 55 54 54 53 53 53 54 54 53 52 52 53 52
7 7 7 7 8 10 11 13 16 18 19 23 28 30 32 34 37 39 41 43 45 46 46 47 47 49 50 52 54 55 55 56 55 55 54 54 55 56 56 55 54 54 54
4 5 5 6 7 8 9 11 13 15 17 20 24 27 30 32 33 34 36 39 40 43 45 47 48 49 51 52 53 55 56 57 57 56 56 57 56 56 57 58 57 56 55
4 4 4 5 5 5 6 8 9 11 13 15 19 23 26 30 32 32 34 35 37 38 41 44 47 48 49 51 53 54 55 57 57 57 57 57 57 56 57 58 58 58 57
4 3 3 2 3 5 6 6 7 9 11 13 16 18 21 25 27 29 29 32 34 36 39 41 43 45 48 50 51 53 55 57 58 57 57 57 57 57 58 58 59 59 59
3 3 4 4 4 4 5 6 6 7 9 10 12 15 17 20 23 25 26 28 29 32 36 39 41 44 46 48 50 52 53 55 56 57 57 57 57 57 57 58 58 58 58
4 5 5 5 5 5 5 6 7 7 7 8 9 12 14 16 18 20 24 26 28 29 32 36 39 41 43 45 47 49 51 54 54 55 56 56 57 58 57 56 57 57 57
5 6 6 6 7 7 7 7 7 7 7 8 10 11 13 15 17 20 22 25 27 30 31 34 37 40 42 43 45 47 50 52 53 54 54 55 56 55 56 56 55 56 57
6 7 7 8 9 9 9 8 8 8 9 11 12 13 15 16 18 20 22 24 26 28 30 32 35 38 41 43 45 46 47 49 51 52 53 54 54 54 54 54 55 55 56
7 7 7 8 9 9 10 10 10 10 10 12 14 15 16 18 20 21 23 25 28 30 31 32 34 36 38 41 44 46 46 48 49 50 51 51 52 52 52 52 53 54 54
7 7 8 9 10 10 11 11 11 12 12 13 15 16 16 17 19 21 23 25 28 30 32 34 34 36 38 40 42 44 46 47 47 48 48 49 49 51 51 51 52 53 53
9 10 10 11 12 12 13 14 14 13 14 15 16 17 18 18 20 21 22 24 26 28 30 32 33 35 36 37 39 41 43 44 44 45 46 47 48 50 50 50 49 50 51
12 13 13 13 14 14 15 16 16 15 16 16 17 18 20 21 22 23 25 26 27 28 29 31 32 32 33 34 36 38 40 42 43 44 45 46 47 47 48 49 49 49 49
15 16 16 16 16 17 18 18 18 18 19 20 20 21 22 23 24 25 26 28 29 30 30 31 31 31 32 32 34 37 38 39 41 42 43 44 45 46 47 48 48 47 47
18 18 19 19 19 19 19 19 20 21 22 23 24 25 26 27 28 29 29 30 30 31 31 31 32 33 33 33 33 35 36 37 39 40 42 42 43 45 46 47 48 48 47
21 21 21 21 21 21 22 22 23 24 25 25 26 27 29 30 31 32 31 31 31 31 31 31 32 33 33 33 35 35 36 37 38 39 41 41 43 45 46 46 47 47 46
23 24 24 24 24 24 24 24 25 26 27 28 28 30 31 33 34 33 33 33 33 33 33 34 34 34 34 34 35 36 37 38 39 40 41 42 42 43 44 44 44 44 43
26 26 26 26 27 27 26 27 27 28 28 30 31 32 33 34 34 34 34 35 35 36 36 36 37 36 36 36 36 37 37 37 38 39 40 41 40 39 40 41 42 43 43
29 29 29 29 29 29 30 30 30 30 31 32 33 34 34 35 36 37 37 37 37 37 37 37 37 37 36 36 36 37 37 38 38 39 38 38 38 39 40 40 40 42 42

GEFSMW_500_meanwind_144.txt.gz
Wind_Speed
25 27 29 30 31 33 34 36 40 44 47 47 48 49 50 51 51 51 51 51 50 50 50 50 49 48 47 46 45 43 43 42 42 44 43 42 41 40 39 39 39 39 38
25 25 25 26 28 30 32 33 35 38 42 44 45 45 45 48 50 50 50 50 51 51 51 50 50 50 49 49 47 45 44 43 43 43 43 44 44 42 42 42 42 41 41
23 23 23 24 25 27 28 30 32 34 37 40 43 44 44 46 48 49 49 49 51 52 51 50 50 50 50 50 48 47 45 44 44 43 44 45 46 45 45 45 45 45 44
21 21 22 23 23 24 26 27 29 31 35 38 39 42 44 46 46 47 48 48 49 50 50 49 50 50 50 49 49 49 47 45 45 45 45 46 48 48 47 47 47 48 48
20 21 21 22 23 24 25 26 27 29 32 35 36 38 40 42 44 44 45 47 47 48 48 49 49 49 49 49 50 50 49 49 49 49 48 48 48 49 49 48 47 48 48
18 19 20 21 22 22 23 24 26 27 28 31 34 36 37 39 41 42 42 44 45 47 46 47 48 47 48 49 49 49 50 50 50 49 49 49 49 50 51 51 49 49 49
17 17 18 19 19 20 21 22 23 24 26 28 32 34 35 37 39 39 41 41 43 45 45 45 46 45 47 47 47 49 49 50 49 49 49 50 51 51 52 53 51 51 51
17 16 16 16 17 17 18 20 21 22 24 25 27 29 31 32 34 36 39 40 41 42 43 44 44 44 45 46 47 47 48 49 49 49 50 51 52 52 53 54 53 52 51
15 15 15 16 17 17 17 18 19 19 20 22 23 24 26 28 30 32 34 35 38 40 42 42 43 43 45 45 46 47 47 48 49 50 50 51 52 53 54 54 54 54 53
14 15 15 14 15 15 15 15 16 17 16 17 19 21 23 25 28 30 31 32 34 37 39 40 40 42 44 46 47 47 48 49 49 49 49 50 51 53 53 54 55 56 55
13 12 12 12 11 12 12 12 13 14 15 16 17 19 21 24 26 28 29 31 31 34 37 39 40 41 44 44 45 46 49 50 51 51 50 51 52 52 54 55 55 56 56
12 11 10 10 10 9 9 9 10 11 12 12 14 17 19 22 23 25 27 29 31 32 35 38 39 40 42 43 44 46 48 50 51 52 53 53 54 54 54 55 55 56 55
11 11 10 10 9 9 9 9 9 11 12 12 14 15 17 19 20 21 24 27 30 31 33 36 37 39 40 41 43 45 46 48 50 52 53 53 54 54 54 54 54 54 54
11 10 10 11 10 10 10 10 10 11 11 13 14 15 16 17 19 20 22 24 27 30 32 33 34 35 37 40 41 43 43 45 48 50 52 53 53 54 54 53 53 53 53
11 11 11 11 11 10 11 11 11 11 12 13 14 15 15 16 17 18 19 21 23 25 28 30 32 34 36 38 40 41 42 43 45 47 49 51 52 53 54 54 54 53 53
11 11 11 12 11 11 11 12 12 12 12 13 14 14 15 16 16 17 18 20 22 24 27 28 30 32 34 37 39 41 42 43 44 45 47 49 50 50 52 53 53 52 52
12 13 13 13 13 12 12 13 13 13 13 13 14 14 14 14 14 16 17 19 21 23 26 28 29 31 33 35 36 38 40 41 43 43 45 46 47 48 49 51 52 52 53
14 14 14 14 14 14 15 15 15 16 15 15 15 15 15 16 15 15 16 18 20 22 25 27 28 30 32 34 36 37 40 41 42 43 43 43 44 46 48 49 50 51 52
15 15 15 15 16 16 16 16 16 17 17 17 17 17 18 18 18 18 20 20 21 22 24 26 28 29 31 33 35 37 38 38 40 40 41 42 42 43 45 46 48 49 50
16 16 16 17 17 17 17 17 18 18 19 19 19 20 19 19 19 20 21 22 24 25 26 27 28 29 30 31 33 35 37 38 38 38 39 39 41 41 42 44 44 46 47
18 18 18 19 19 20 20 20 20 20 21 21 21 21 21 21 21 22 23 24 25 26 27 28 29 30 31 32 33 35 36 36 36 36 36 37 38 38 40 41 42 43 44
21 22 22 23 23 24 24 24 24 23 23 23 23 23 23 24 24 24 25 26 27 28 29 29 30 31 32 33 35 35 35 34 34 34 35 35 36 37 37 38 39 40 41
25 25 26 26 26 26 27 27 27 27 27 26 26 26 26 26 27 27 28 28 29 30 31 31 32 32 33 34 35 34 34 34 35 34 35 35 36 36 36 37 38 40 41
28 28 29 29 29 29 30 30 29 29 29 28 28 28 29 29 30 30 31 31 32 32 32 32 32 33 34 34 34 35 35 35 35 35 36 36 36 37 38 38 39 40 41
31 31 31 31 31 31 31 31 31 31 30 30 30 30 30 31 32 33 33 34 35 34 34 34 34 34 35 35 36 36 36 37 38 38 38 38 38 38 38 38 39 39 40
32 32 32 32 32 32 32 31 31 31 32 32 33 32 32 33 34 35 35 36 36 36 36 36 36 36 37 37 37 37 37 38 38 39 39 39 39 38 39 39 39 39 40

GEFSMW_500_meanwind_150.txt.gz
Wind_Speed
28 28 29 30 32 33 34 34 36 38 41 44 46 46 47 48 49 50 51 50 49 48 48 47 46 46 46 46 45 44 43 42 42 42 42 41 40 39 38 37 38 38 38
27 28 29 29 29 30 30 31 32 35 37 39 41 43 46 47 49 51 51 51 50 50 49 49 49 48 48 48 46 45 45 44 44 44 44 43 43 41 40 40 40 40 40
25 27 27 26 27 26 27 29 31 33 35 37 40 41 44 46 48 49 50 50 50 50 50 50 51 50 50 50 49 48 47 46 46 46 46 46 44 44 43 43 43 42 42
23 23 23 23 24 25 26 26 27 30 33 36 38 40 43 44 45 46 47 48 49 49 50 51 51 51 51 50 51 50 49 48 48 47 47 47 46 46 45 44 44 44 44
21 21 21 21 22 23 24 25 26 28 30 32 35 37 38 39 41 43 43 45 47 49 48 49 50 51 51 50 51 51 50 49 48 48 47 47 47 47 45 45 44 45 45
19 20 20 20 21 22 23 24 25 26 27 28 30 32 34 36 38 39 40 42 44 46 46 46 48 49 49 49 49 49 48 48 48 48 49 49 49 47 46 46 45 46 46
18 18 19 20 20 20 22 23 23 24 24 25 27 29 32 35 37 38 40 41 42 43 43 45 45 46 47 48 48 48 49 49 48 48 48 48 48 48 48 48 48 48 48
16 17 17 18 19 20 20 21 22 23 24 25 25 26 28 30 32 34 36 38 39 40 41 42 42 43 45 47 47 47 48 49 49 49 49 49 49 49 48 49 50 50 50
14 14 15 16 18 18 18 18 19 21 22 23 24 24 25 27 29 32 34 36 37 38 39 41 42 42 43 45 47 47 48 49 50 50 50 50 50 49 49 49 50 52 52
13 14 15 15 16 17 16 15 16 17 18 20 21 22 24 25 27 28 29 31 33 35 37 39 39 41 43 45 47 47 47 49 50 50 50 49 49 51 51 50 50 52 53
15 15 15 16 16 16 16 15 15 15 15 16 17 19 21 22 23 25 27 29 30 32 35 38 38 39 41 44 46 45 46 48 48 49 50 50 50 51 52 51 50 52 53
15 15 15 14 14 14 14 14 14 14 14 15 15 16 18 21 22 24 26 28 29 31 33 34 36 37 39 41 44 45 45 47 47 48 50 50 50 51 52 52 51 52 53
14 14 14 14 14 13 13 13 13 13 13 13 14 15 16 17 20 22 23 26 28 30 30 32 33 34 35 38 39 42 43 45 46 47 49 49 50 50 52 53 52 52 53
13 13 13 14 14 13 13 14 14 15 14 13 13 13 14 15 16 19 21 22 23 25 26 29 31 32 33 35 36 38 39 41 43 45 47 48 49 50 50 52 52 53 54
12 12 13 13 14 14 14 14 14 15 15 15 14 15 14 14 16 17 20 21 23 24 26 27 27 29 31 33 35 36 38 39 41 42 44 45 48 49 49 51 52 53 54
13 13 13 13 14 14 14 14 14 15 16 16 16 17 17 17 18 19 20 21 23 24 25 25 25 27 29 30 33 35 36 38 40 41 42 44 46 48 49 50 51 53 52
14 14 14 13 13 13 14 15 15 16 17 17 17 18 18 18 19 20 20 22 22 22 23 24 25 27 29 30 32 33 35 37 39 41 42 43 45 46 47 49 50 52 52
15 15 15 15 14 14 15 16 17 18 19 19 19 19 19 19 19 20 21 21 22 22 23 23 23 25 27 29 31 32 34 35 37 39 41 42 43 44 44 46 47 49 51
15 15 16 16 16 17 18 18 19 19 20 20 20 20 21 21 21 21 22 22 23 24 25 25 26 27 29 30 31 33 34 35 36 37 37 37 38 40 41 43 44 46 47
16 17 17 18 19 20 20 21 20 21 21 21 21 22 22 23 23 24 24 24 25 26 27 28 29 30 31 31 32 33 34 35 36 37 37 38 39 40 41 42 42 43 44
19 20 20 21 22 22 22 22 22 23 23 23 24 24 25 25 25 25 25 26 27 28 28 29 31 32 32 32 32 33 33 35 36 37 39 39 40 40 41 42 42 42 42
21 22 23 24 24 24 24 24 24 25 25 25 25 25 25 25 25 25 25 26 27 28 28 29 30 31 30 31 31 32 33 34 36 37 38 40 41 42 42 42 42 42 42
24 25 26 26 26 26 26 26 26 26 26 27 26 26 26 27 27 27 27 28 28 29 29 29 30 30 30 31 32 32 33 34 36 38 39 40 41 42 42 43 42 42 42
27 27 28 28 28 28 28 28 28 28 28 27 27 27 27 28 28 28 29 29 29 30 29 30 30 31 32 32 33 34 35 36 37 39 40 41 42 42 42 43 43 43 44
28 29 29 29 29 30 30 30 30 29 29 29 28 28 28 28 28 29 29 29 30 30 30 30 31 32 32 34 35 36 37 38 38 39 41 41 42 42 42 43 43 43 43
30 30 30 30 30 31 31 31 31 30 30 29 29 29 29 29 29 29 30 30 31 32 33 33 34 34 34 35 35 36 37 38 39 40 41 41 42 42 42 42 42 42 42

GEFSMW_500_meanwind_156.txt.gz
Wind_Speed
30 31 31 32 33 34 35 36 36 36 37 39 40 41 42 44 45 45 46 47 48 49 50 50 49 48 48 47 46 45 44 43 42 42 42 42 42 42 41 41 40 40 40
29 30 30 32 33 33 34 35 36 36 36 38 40 41 42 43 44 44 45 46 47 49 51 51 50 49 49 48 48 47 47 45 44 44 44 44 44 43 42 42 42 42 41
28 28 29 30 31 32 33 33 34 35 36 37 38 40 41 41 42 44 44 44 45 47 49 51 51 50 50 51 50 50 50 49 47 46 46 47 46 45 45 44 43 43 43
27 27 28 29 30 30 31 32 33 34 34 34 35 37 39 41 42 42 43 44 45 46 47 49 50 51 50 50 51 50 51 51 49 49 48 48 47 47 45 45 44 43 43
27 27 27 28 29 28 29 30 31 31 31 33 33 34 36 38 40 41 43 44 45 46 47 49 49 50 51 50 51 50 51 51 51 50 49 49 49 48 48 46 45 45 45
26 26 26 27 27 27 28 28 29 29 30 31 32 32 33 35 37 39 40 41 41 42 44 47 48 49 50 51 51 50 50 50 50 50 49 49 49 48 48 47 46 47 46
25 25 25 25 26 26 26 26 27 27 28 28 29 30 31 32 34 36 38 39 39 39 41 43 45 47 47 49 49 48 48 49 49 49 50 50 50 49 49 49 49 49 48
24 26 26 25 25 25 25 26 26 26 26 27 28 28 29 30 32 33 35 36 36 37 39 42 44 45 47 48 47 47 47 47 47 48 49 49 49 49 50 51 50 50 49
23 25 25 25 25 25 25 26 26 26 25 26 27 27 28 27 28 30 31 33 36 37 38 39 40 41 44 45 45 43 43 43 45 47 48 49 49 50 50 50 50 51 50
22 23 24 25 25 25 25 25 25 25 25 26 27 26 25 25 26 28 30 31 33 35 37 38 39 40 40 40 40 41 40 41 42 44 46 48 49 49 50 49 49 51 51
21 22 23 24 25 25 25 24 24 25 24 24 24 24 24 25 25 25 27 27 29 31 33 35 37 37 37 38 39 40 40 39 40 41 43 46 47 49 49 49 49 50 50
20 21 23 23 23 23 24 25 25 25 25 24 24 23 24 25 24 25 26 27 28 28 30 31 33 34 35 37 38 39 39 39 40 40 42 44 46 48 49 48 48 49 50
22 23 23 23 24 24 24 25 25 25 24 23 23 23 23 24 24 25 25 26 26 27 28 29 31 33 34 36 37 39 39 40 41 42 42 43 44 45 47 47 48 49 50
22 23 23 23 24 24 24 24 23 23 24 24 24 23 23 24 24 24 24 24 24 24 24 26 28 30 32 34 36 38 39 40 41 42 42 43 44 45 45 47 48 49 50
22 22 23 24 24 24 23 23 23 23 23 23 22 22 22 23 23 23 24 23 23 24 24 25 27 29 30 32 33 35 36 38 39 40 41 43 44 43 44 45 46 48 50
23 23 23 23 23 22 22 21 22 22 22 22 22 22 23 23 23 23 23 24 24 24 25 26 27 28 29 30 32 34 35 36 37 38 40 41 43 43 44 44 46 47 48
23 22 21 21 21 21 20 20 20 21 22 23 23 23 23 23 23 22 23 23 24 25 26 26 27 29 31 32 33 34 34 35 37 38 39 41 42 43 44 45 47 48 49
22 21 21 22 21 21 21 21 21 21 22 22 22 22 22 22 22 23 24 24 24 25 26 27 29 30 31 32 33 34 35 36 37 38 39 41 42 43 44 45 46 47 48
23 23 22 22 22 22 22 22 22 22 22 22 23 23 22 22 23 23 23 24 25 26 27 28 29 30 31 32 32 34 35 36 37 37 38 39 40 41 43 45 46 47 48
24 24 24 24 24 24 24 24 24 23 23 23 24 24 24 25 24 25 25 26 27 28 28 29 30 30 31 32 33 34 35 35 36 37 37 38 39 40 42 43 45 45 46
25 25 25 25 25 25 25 25 24 24 24 25 25 25 25 26 26 26 27 27 28 29 30 30 30 30 31 32 33 34 35 35 36 36 37 38 39 40 41 42 43 44 45
26 26 25 25 25 25 25 25 25 26 25 26 27 27 28 28 29 29 29 29 29 29 30 30 30 30 30 30 31 32 33 34 34 35 36 37 39 40 40 41 42 42 43
27 27 26 26 26 26 26 26 27 27 27 27 28 29 29 29 29 30 30 30 29 29 29 29 29 29 29 30 31 31 32 34 35 36 37 38 39 40 40 40 41 42 43
28 28 28 27 27 28 28 28 29 29 29 30 30 29 29 29 29 29 29 29 28 28 28 28 29 30 30 31 32 32 33 34 35 36 37 37 38 39 40 40 41 42 43
29 29 29 29 29 29 29 30 30 31 31 30 30 29 29 29 29 29 28 28 28 29 29 29 30 31 32 32 33 34 35 35 36 36 37 38 39 40 40 41 41 43 44
30 30 30 30 31 31 31 31 31 31 30 29 29 29 29 29 29 29 28 28 29 30 31 31 32 32 32 33 34 35 36 36 36 37 37 38 39 41 41 42 43 44 45

GEFSMW_500_meanwind_162.txt.gz
Wind_Speed
27 28 28 29 29 30 31 31 32 32 33 34 35 37 38 39 40 41 42 43 43 44 45 45 46 47 48 48 48 48 48 47 47 47 46 46 45 43 42 42 42 41 41
26 26 28 28 29 30 31 32 32 32 33 33 35 36 38 39 40 40 41 43 44 45 45 46 47 47 48 49 50 50 49 49 48 48 48 48 47 45 44 43 43 43 43
25 26 28 29 29 30 31 32 32 32 33 33 34 35 36 38 40 40 41 42 43 44 45 46 47 47 47 48 49 50 49 49 48 48 49 49 49 47 46 45 45 45 45
26 27 28 28 29 30 31 31 32 33 34 33 33 34 35 37 38 40 41 42 42 43 43 44 45 46 46 47 48 49 50 50 49 49 49 49 50 49 47 46 46 47 47
26 27 28 28 29 29 30 31 32 33 33 34 34 35 35 36 37 38 39 41 42 42 43 43 44 45 45 45 46 47 48 49 49 49 49 50 51 51 49 47 46 47 47
27 27 27 28 29 29 30 30 31 32 33 33 34 34 35 35 35 36 38 39 39 40 40 41 42 43 44 44 45 46 47 47 48 48 49 50 50 50 50 48 47 47 47
28 28 28 28 29 29 29 30 30 31 32 33 34 34 34 34 35 36 36 37 37 39 40 40 40 41 41 42 44 45 46 47 48 49 49 49 50 49 49 49 48 47 47
27 27 28 28 29 29 29 29 30 31 32 32 33 34 34 34 34 35 35 36 36 37 39 40 40 40 40 41 43 44 45 47 49 50 50 50 50 49 48 48 48 48 47
26 27 28 29 29 30 30 30 31 31 31 32 32 33 34 34 34 34 34 35 35 37 38 39 40 40 41 41 42 43 44 45 47 48 49 49 49 48 48 48 49 48 48
25 26 27 28 29 30 31 31 31 31 31 31 31 31 31 32 32 33 33 34 35 36 37 38 39 41 41 42 42 43 44 45 45 46 47 48 48 48 48 47 48 48 48
24 24 25 26 27 28 29 29 29 29 30 30 30 30 30 30 30 31 32 33 33 34 35 35 36 38 39 41 41 42 43 44 46 47 47 47 47 48 48 48 48 48 48
24 25 26 27 27 28 28 28 28 28 29 29 29 30 30 29 30 30 31 31 32 32 32 33 34 35 36 38 40 40 42 43 44 45 46 46 46 47 48 48 48 48 49
24 25 26 27 28 28 28 28 28 28 28 28 28 28 28 29 29 28 28 28 29 29 30 31 32 33 34 35 37 38 39 41 42 43 44 45 45 46 48 49 49 49 50
25 25 26 27 28 28 28 28 27 27 27 27 27 28 28 28 28 27 27 27 27 28 29 30 31 32 33 34 36 37 38 39 40 40 41 43 44 45 47 48 49 49 50
25 25 26 27 27 28 28 28 27 27 27 27 27 27 27 28 27 27 27 27 28 28 29 29 30 31 31 33 34 35 35 37 38 39 40 42 44 45 46 48 48 49 49
26 26 26 27 27 27 27 27 28 28 27 27 27 27 27 27 28 28 27 27 28 28 29 29 30 30 30 31 32 33 34 35 37 37 39 41 43 44 45 47 48 49 49
26 26 26 26 27 27 27 27 27 27 27 26 26 26 26 27 27 27 27 27 27 28 28 28 28 28 29 29 30 32 33 35 37 37 38 39 41 43 44 46 46 48 49
27 27 26 27 27 27 28 28 28 27 26 25 25 25 25 26 26 26 26 26 27 27 27 27 28 28 29 30 30 31 33 35 36 37 38 38 40 42 43 45 46 48 49
27 27 27 27 27 28 28 28 28 27 25 25 25 25 25 25 25 26 26 27 27 27 27 27 28 29 30 30 30 31 32 33 35 36 36 38 39 40 42 44 45 47 47
28 28 28 28 28 27 27 27 27 26 25 25 24 24 25 25 25 26 26 26 27 27 27 27 28 29 30 30 30 30 30 31 32 33 35 36 37 38 40 41 43 45 45
29 29 29 28 28 27 27 27 27 26 25 25 25 25 25 26 26 26 25 25 25 26 27 27 27 28 28 28 28 28 28 28 29 30 32 33 34 36 38 39 41 42 43
29 29 29 28 28 28 27 27 26 25 26 26 25 26 25 25 25 25 25 25 26 26 26 26 26 26 26 26 26 26 27 28 29 29 30 32 33 35 37 38 39 40 42
29 29 29 28 27 27 27 26 25 25 26 25 26 26 26 26 26 25 25 25 25 25 25 25 26 26 26 27 27 27 27 28 29 30 31 33 34 35 36 37 38 38 39
29 29 28 27 27 26 26 26 26 26 26 26 26 27 27 26 26 26 26 26 26 26 26 27 27 27 27 28 28 29 30 30 31 31 32 33 34 35 35 36 37 38 39
30 30 29 28 28 27 26 26 27 27 27 27 27 27 27 27 26 26 26 27 27 27 27 27 28 28 28 29 30 30 30 31 32 32 33 33 34 35 35 36 37 38 39
30 29 29 29 29 28 28 28 28 28 27 27 28 28 28 28 27 27 28 28 28 29 29 29 29 29 29 30 31 32 32 33 33 33 33 34 35 36 36 37 38 39 39

GEFSMW_500_meanwind_168.txt.gz
Wind_Speed
27 27 27 28 29 29 30 30 31 32 32 33 33 34 34 35 36 37 37 37 38 39 40 40 40 40 40 41 42 43 44 44 45 45 45 43 42 42 42 42 42 41 41
25 26 26 28 28 29 30 30 31 32 33 34 34 34 35 36 37 38 38 39 39 40 40 41 41 42 41 42 42 43 44 45 46 46 46 46 44 44 44 43 43 43 42
25 25 26 27 28 29 30 31 32 33 34 35 36 36 36 36 37 38 38 38 39 39 41 42 42 43 43 43 43 43 44 46 46 47 48 47 45 45 45 45 44 44 43
26 27 27 28 28 29 30 32 33 34 35 36 36 36 36 37 37 37 37 38 39 39 40 41 42 42 43 43 43 44 44 45 46 47 48 48 47 46 46 46 46 45 44
27 27 28 29 30 31 32 33 34 35 36 37 37 38 38 38 38 38 38 38 39 39 39 40 40 40 41 42 42 43 45 45 45 46 47 47 47 47 46 46 46 47 46
27 28 29 30 31 32 33 34 35 36 37 37 38 38 39 39 39 39 39 39 39 40 40 40 40 41 41 41 42 43 44 45 45 46 46 47 47 48 47 46 46 47 47
28 28 30 31 32 32 34 35 36 36 37 38 38 38 39 39 39 39 39 39 39 39 39 40 40 40 41 41 42 42 42 43 45 46 46 47 48 48 48 48 47 47 47
29 30 31 32 33 34 35 35 36 36 37 38 39 39 39 39 39 39 39 39 39 39 39 39 40 41 41 42 42 42 42 42 44 45 46 47 48 49 48 48 48 47 47
31 32 33 33 34 34 35 35 36 36 37 38 38 39 39 39 39 39 39 38 38 39 39 40 41 41 41 42 43 42 43 44 45 45 46 47 47 48 49 49 50 50 50
31 32 33 34 34 34 35 35 36 36 37 37 37 38 38 38 37 38 38 38 38 38 39 40 40 41 41 42 42 43 43 44 46 46 46 46 47 48 48 49 50 51 52
30 31 32 33 34 35 35 36 36 36 37 37 37 37 37 38 38 38 37 37 37 38 38 39 40 40 40 40 41 42 44 43 44 45 45 45 46 47 47 48 49 50 51
30 31 31 32 33 34 35 36 37 37 37 37 37 36 37 37 37 37 37 37 37 37 37 38 39 39 39 39 40 41 41 41 42 43 43 44 45 45 46 47 47 49 50
29 31 32 33 34 34 35 35 36 36 37 37 37 36 36 36 36 36 36 36 36 35 36 36 37 37 36 36 36 36 36 37 39 40 41 42 43 44 45 45 46 47 48
30 31 32 33 34 35 35 36 36 36 36 36 37 36 36 36 36 35 35 35 34 34 34 33 33 33 33 33 33 34 35 36 37 38 38 40 41 43 45 46 46 46 46
32 33 33 34 34 35 35 36 36 36 37 37 37 36 36 35 34 34 34 33 33 32 32 31 31 32 32 33 34 35 36 37 37 37 38 39 41 42 43 43 43 44 45
34 34 35 35 35 35 36 35 36 36 36 36 36 36 35 34 33 33 33 32 32 32 32 32 31 31 32 34 35 35 36 36 36 36 37 38 39 40 41 42 42 43 43
35 35 36 35 36 36 35 35 35 36 35 35 35 35 34 34 34 33 32 32 32 32 32 32 32 32 33 34 35 35 34 35 35 36 37 37 38 39 40 41 42 43 43
35 36 35 35 35 35 35 35 36 36 35 35 34 33 33 33 33 33 32 32 32 31 32 32 32 32 32 33 33 34 34 34 35 36 37 37 37 38 39 40 41 41 42
34 35 35 35 35 35 35 35 35 35 35 34 33 32 32 32 32 31 31 31 30 30 30 30 30 31 31 31 31 32 32 33 34 34 34 35 36 36 37 38 38 38 39
35 34 34 35 35 35 35 34 34 34 34 33 32 31 31 31 30 30 29 29 29 29 29 29 29 30 30 30 30 31 31 31 31 31 32 33 33 34 35 35 35 36 37
35 35 34 34 34 33 33 32 32 32 32 31 31 30 30 30 30 29 29 28 28 28 28 28 29 29 29 30 30 30 30 30 30 30 31 31 31 32 32 33 34 34 35
36 35 35 34 33 32 32 31 31 31 31 31 30 29 28 28 28 28 29 28 28 28 28 27 28 29 29 29 29 29 29 30 30 30 30 30 31 31 32 32 33 33 34
36 35 34 34 32 32 31 31 31 31 31 30 29 28 28 27 26 26 27 27 28 28 28 28 27 27 28 28 27 28 28 28 29 30 30 30 30 30 31 32 33 33 34
36 35 35 34 32 31 31 31 31 31 30 29 28 28 28 27 26 27 27 27 27 28 28 28 28 27 27 27 28 28 28 28 29 30 30 30 30 30 31 32 33 34 36
36 36 35 34 33 32 32 32 31 31 30 29 28 28 27 27 27 27 26 27 27 28 28 28 29 28 28 28 28 28 29 29 30 30 30 30 30 31 31 33 34 35 36
37 36 35 35 34 32 32 32 31 31 30 29 28 28 28 27 27 27 27 27 28 28 28 28 29 30 30 30 30 30 30 30 31 31 31 32 32 32 33 33 34 36 37

GEFSMW_500_meanwind_174.txt.gz
Wind_Speed
26 26 26 26 26 27 28 27 28 29 29 30 30 32 33 33 34 34 35 36 36 36 37 37 37 37 38 38 39 40 40 41 41 41 41 42 42 42 43 43 44 43 43
25 26 26 26 26 27 27 28 29 29 30 31 33 33 34 34 36 36 37 37 37 37 37 37 38 39 39 40 40 41 41 41 42 42 41 42 43 43 44 44 45 45 45
25 25 26 26 27 28 29 29 29 30 31 33 34 35 35 36 36 37 37 37 38 39 39 39 39 40 40 41 41 42 42 42 42 43 43 43 43 43 44 46 46 46 46
26 26 26 27 28 29 29 30 30 31 32 33 34 35 35 36 37 38 38 38 39 40 41 41 41 42 42 42 42 42 43 43 43 43 44 44 44 44 43 45 46 47 48
27 27 27 27 28 28 29 30 31 32 32 33 34 35 36 36 37 38 39 40 40 41 41 42 42 43 43 43 43 43 43 43 42 43 43 44 44 45 45 45 46 48 49
26 27 27 27 27 28 29 30 31 33 33 34 35 36 36 37 38 39 40 40 41 41 42 42 42 43 43 43 42 43 44 44 43 43 43 43 44 45 46 46 46 47 49
27 27 27 27 28 29 30 31 32 33 34 35 36 37 37 38 38 39 40 40 41 42 42 42 42 42 42 42 42 42 43 43 44 44 44 44 44 45 46 46 46 47 48
27 27 28 29 30 31 32 33 33 34 35 36 36 37 38 38 39 40 40 40 41 42 42 42 43 43 42 42 42 42 43 43 44 44 45 45 45 45 46 46 47 47 47
27 29 30 31 31 32 33 34 35 35 36 37 37 38 39 40 40 40 41 41 41 42 42 42 42 41 41 41 42 42 43 43 43 43 44 44 44 45 45 46 46 47 47
28 29 31 32 33 34 35 35 36 37 37 37 38 39 39 40 40 41 41 41 41 42 42 41 41 41 41 41 41 42 43 43 43 43 44 44 44 45 45 46 46 47 47
29 30 31 32 33 34 35 36 37 38 38 39 39 40 41 41 41 42 42 42 42 41 40 40 40 40 41 42 42 42 42 43 43 43 44 44 44 45 45 46 47 48 47
29 30 32 33 35 36 37 38 39 39 40 40 40 41 41 41 42 42 42 42 42 41 40 40 40 40 41 42 42 42 42 43 43 43 43 44 44 44 45 46 48 47 47
30 31 32 33 34 36 37 38 38 39 39 40 41 41 41 41 42 43 43 42 42 42 42 41 41 41 41 41 41 42 41 42 43 43 43 43 43 44 45 46 46 46 47
30 31 32 33 34 35 36 37 38 38 39 39 40 41 41 42 42 42 42 43 43 43 42 42 41 41 41 41 41 40 41 41 41 42 42 43 44 44 44 44 45 45 46
31 31 32 34 35 36 37 37 38 38 39 40 41 41 42 42 42 42 42 42 42 42 41 41 41 41 40 40 40 40 40 40 41 41 42 42 42 42 42 43 43 44 44
32 33 33 34 35 36 37 37 38 39 40 41 42 42 42 42 41 41 41 41 40 39 39 39 39 38 38 38 38 39 38 38 39 39 40 39 40 41 41 42 42 43 43
34 34 34 35 35 36 37 38 39 39 40 40 41 42 42 41 41 40 39 38 38 38 38 37 37 36 36 36 37 37 38 37 37 38 38 38 39 39 40 40 40 41 42
35 35 35 36 36 37 37 37 38 39 39 40 40 41 41 40 39 38 37 37 37 37 37 37 36 36 35 35 36 36 36 36 36 36 36 36 36 37 37 38 39 40 40
35 35 36 36 36 37 37 37 38 38 38 38 39 39 38 37 36 35 35 35 35 35 35 35 34 34 34 34 34 34 34 34 34 34 34 34 35 35 36 37 37 38 39
35 35 36 36 36 36 36 36 36 37 37 37 36 35 35 34 33 33 34 34 34 34 34 33 33 33 33 33 33 33 33 32 32 33 33 33 33 34 35 36 36 37 38
36 36 36 36 35 35 35 36 36 36 36 35 35 35 34 33 34 34 34 33 33 33 32 32 32 32 32 32 32 32 32 32 32 32 32 33 33 34 35 36 37 37 37
36 37 36 36 36 36 36 36 35 35 35 34 34 35 34 33 33 33 33 32 32 31 31 31 31 31 31 31 31 32 32 32 32 32 32 32 33 34 35 36 36 36 37
37 37 37 37 36 36 36 35 35 35 34 34 34 33 33 32 32 32 31 31 31 31 30 30 30 30 30 30 31 31 31 31 32 32 32 33 33 34 34 34 34 34 35
38 38 37 37 36 35 35 35 35 35 34 33 33 32 32 32 32 32 32 31 31 30 30 29 29 29 29 30 30 31 32 31 31 32 32 32 32 32 33 33 33 33 33
39 39 38 37 36 35 35 35 35 34 33 32 31 30 30 31 31 31 30 30 29 29 28 29 29 29 29 29 29 30 30 31 31 31 31 31 31 32 32 31 31 32 32
38 38 37 36 35 35 34 34 34 33 32 31 30 30 30 29 29 29 29 29 29 28 28 29 28 28 28 28 29 29 30 30 31 31 31 31 31 31 31 31 31 32 32